GFSSGP_925_thetae_063.txt.gz
Theta_e
317 311 312 318 320 316 317 319 319 320 324 323 324 325 324 323 333 342 343 339 345 345 340 336 343 342 339 339 338 336 336 334 331 330 329 330 331 328 329 334 336 336 337 338 336 335 336 335 331
312 313 316 316 318 319 320 319 320 321 322 322 323 324 324 333 341 343 342 342 343 343 343 336 339 344 341 342 339 339 339 337 336 334 331 331 331 330 336 336 336 337 337 337 336 336 335 331 330
314 316 316 316 316 319 319 320 320 319 320 321 322 323 328 335 334 340 341 340 340 343 343 339 336 344 345 342 340 338 338 338 336 334 333 333 332 333 335 335 336 335 336 336 336 335 330 328 328
314 316 314 314 315 317 318 319 319 319 319 320 322 325 330 331 333 340 339 337 337 340 343 341 337 339 344 343 340 338 338 338 336 333 333 333 335 335 335 334 334 334 335 335 334 331 328 327 326
315 312 313 314 315 317 318 318 319 320 320 323 323 325 334 337 339 338 337 338 339 337 340 342 340 339 340 344 341 339 338 337 335 334 333 334 335 335 334 333 332 332 333 333 331 328 326 325 326
312 311 313 314 316 318 319 319 319 321 320 320 321 324 335 336 336 338 336 337 339 340 341 342 339 339 338 339 341 340 338 335 334 334 332 332 334 334 333 331 330 331 331 330 329 327 323 323 323
314 313 313 314 316 318 319 319 320 320 320 325 326 326 334 334 337 337 336 335 336 338 338 342 339 337 336 336 337 336 336 334 335 335 333 334 332 333 331 331 330 328 328 327 326 325 322 323 323
314 313 315 316 317 318 319 322 320 320 322 326 323 322 337 335 335 334 334 334 335 338 337 338 339 338 335 334 336 335 334 333 329 329 330 329 333 332 330 330 330 329 326 324 325 324 321 323 320
316 315 314 314 317 318 319 321 320 319 320 323 324 321 336 335 334 333 334 334 331 337 333 336 335 338 337 333 334 332 330 330 328 324 324 332 332 330 329 327 328 327 323 321 320 320 320 321 320
314 312 314 315 316 317 317 320 319 319 322 321 322 334 334 332 332 331 329 332 333 334 334 334 336 337 334 332 332 331 329 327 324 324 323 332 330 330 329 328 327 325 320 321 321 321 319 319 320
315 315 315 316 317 317 317 316 318 318 319 321 326 335 333 331 330 328 329 331 332 334 335 333 335 335 332 332 331 330 328 326 323 330 329 330 330 330 329 327 325 321 322 322 320 319 314 319 320
316 315 316 316 317 317 316 315 318 318 320 324 322 332 333 331 329 329 328 332 333 334 334 333 333 333 332 332 331 330 327 328 326 326 330 328 331 330 328 325 322 320 318 318 319 317 312 319 320
318 317 316 316 316 317 316 315 317 317 317 321 326 326 326 329 328 330 331 333 332 333 332 331 332 331 330 330 329 326 327 327 328 329 328 324 328 330 328 323 319 315 315 314 312 311 314 319 321
317 317 316 316 315 316 317 315 317 317 317 316 325 326 326 326 326 328 331 332 331 332 330 330 331 331 329 329 328 328 328 328 328 326 323 324 328 328 327 321 316 315 312 309 316 316 314 318 319
317 316 315 315 314 315 317 316 314 315 316 316 324 327 326 327 324 328 330 332 331 330 327 327 328 329 328 328 328 327 328 327 326 327 327 324 325 326 326 320 316 316 312 312 319 320 317 318 321
317 315 315 316 316 317 315 318 315 314 315 315 315 327 328 327 324 325 330 331 330 329 327 327 329 329 328 327 328 328 326 327 327 327 325 323 324 321 325 322 317 319 315 315 320 321 320 319 321
317 316 316 317 317 317 316 318 316 316 317 317 319 324 327 327 325 325 330 331 330 328 327 326 326 328 327 327 327 327 327 326 327 326 323 321 322 322 322 325 318 322 320 319 319 320 319 320 321
318 317 316 317 318 318 317 317 317 316 319 322 320 318 327 327 326 325 328 330 330 327 326 325 325 325 326 327 326 326 326 325 323 322 320 320 320 321 325 325 320 323 322 322 321 320 319 320 320
317 318 318 316 318 322 320 318 317 317 317 321 319 319 323 328 326 325 328 329 328 327 327 325 323 324 324 325 324 325 325 323 323 321 320 323 320 324 325 324 323 323 324 323 321 319 318 319 320
317 317 317 318 319 321 320 318 317 316 315 316 321 319 319 327 327 325 328 328 327 326 326 325 323 322 321 321 323 323 323 323 322 321 320 323 322 321 322 322 322 321 323 321 319 319 319 319 319
316 317 318 319 319 318 319 316 317 318 317 316 317 321 321 328 328 326 326 327 326 325 326 325 323 322 321 322 322 322 322 321 321 321 320 321 320 319 320 318 321 320 320 319 319 319 319 318 318
312 314 316 317 318 319 318 318 318 319 318 317 316 317 323 328 328 327 325 325 326 325 326 325 324 321 321 322 322 321 321 321 320 320 320 320 320 320 317 318 318 318 318 318 318 318 317 317 317
319 316 317 318 320 318 319 318 317 317 318 317 315 318 318 327 328 328 326 325 326 326 326 324 323 322 322 321 321 321 320 320 320 320 320 319 320 320 319 318 316 316 317 317 319 316 315 317 317
318 319 319 318 320 323 321 319 317 318 319 320 319 319 319 320 328 328 327 326 326 326 325 324 324 323 323 322 321 321 320 319 318 320 320 320 318 318 317 315 316 315 315 319 322 318 318 318 319
318 320 322 324 324 323 320 320 319 319 320 320 320 318 319 319 328 328 328 326 325 325 324 323 323 323 323 322 322 321 320 319 317 319 320 320 321 320 317 316 318 319 317 315 320 322 322 320 320
319 318 323 326 326 324 320 321 320 319 320 319 319 319 319 321 329 328 328 327 326 326 324 323 322 323 323 322 322 321 321 319 318 317 319 319 319 320 320 318 316 318 320 321 319 317 322 322 322
320 320 317 321 323 326 326 324 319 319 319 318 319 319 322 322 326 329 328 328 327 326 325 324 323 323 323 323 322 322 322 320 319 317 317 318 317 318 320 320 320 317 317 321 322 322 321 323 323
318 317 322 323 329 330 325 325 327 323 320 321 319 318 319 319 321 328 328 327 328 327 326 324 323 322 322 323 322 322 322 322 321 320 318 317 316 316 317 319 320 321 319 317 322 323 322 322 322
319 321 322 323 323 326 328 328 324 321 321 320 321 320 318 318 319 321 328 328 329 328 327 325 324 323 322 321 322 323 322 322 321 321 319 318 317 316 316 317 320 321 321 320 319 322 322 322 323
317 319 322 328 328 326 324 329 324 322 318 318 318 317 318 319 320 320 320 322 328 328 328 326 325 324 323 322 321 321 322 322 322 321 321 320 319 318 317 316 318 320 321 321 321 321 323 323 323

GFSSGP_925_thetae_066.txt.gz
Theta_e
317 314 312 317 319 312 315 316 317 318 323 322 323 323 324 327 332 330 341 340 344 343 341 341 340 338 336 334 333 334 334 333 333 334 334 334 331 327 326 329 335 336 336 337 337 335 336 338 335
316 312 315 312 317 317 316 317 318 318 322 319 322 321 326 341 342 342 341 343 343 342 340 339 342 341 341 336 334 333 335 333 331 332 333 331 327 326 329 331 332 334 334 334 335 334 336 335 333
312 316 313 314 312 316 317 318 318 318 319 320 321 323 328 338 342 341 341 341 343 343 340 337 339 341 340 339 336 334 333 332 330 330 331 329 328 330 332 335 337 336 335 336 335 335 334 331 331
315 314 313 313 314 315 316 317 317 316 317 319 320 328 332 332 340 340 340 340 341 343 342 339 337 342 341 341 338 336 335 333 330 329 331 330 331 333 334 336 336 336 335 335 335 334 330 329 329
314 308 314 312 312 314 314 314 314 317 318 322 321 326 334 338 338 338 338 338 339 342 342 341 338 339 343 341 339 338 338 337 333 331 331 330 334 335 335 335 335 335 334 334 333 331 330 329 328
310 308 311 313 313 314 314 314 315 318 320 322 322 333 335 338 338 337 337 338 340 339 341 342 340 338 340 340 340 338 338 337 335 332 332 333 333 334 334 333 333 334 333 331 331 329 328 328 329
311 309 311 312 313 315 317 316 317 318 318 322 323 329 336 334 337 337 334 335 338 339 339 341 340 340 339 337 337 338 338 336 334 334 335 337 335 334 333 331 332 332 330 330 328 327 326 324 322
310 310 315 314 316 315 315 316 316 317 319 325 321 336 337 334 337 336 335 333 335 337 336 338 338 337 338 338 338 338 334 329 334 332 330 333 332 333 332 330 329 330 328 328 326 324 323 320 322
312 314 312 314 314 316 315 316 315 318 324 324 322 329 332 336 336 335 334 334 335 337 337 334 336 338 336 335 335 335 334 333 332 330 329 329 331 331 331 329 328 328 327 327 324 322 322 320 322
314 314 316 313 313 314 314 314 314 316 320 321 335 335 334 334 333 331 331 330 337 336 335 335 335 337 337 334 334 334 332 332 332 328 326 325 328 330 332 330 328 325 325 325 324 322 320 321 321
312 318 314 313 313 312 314 315 314 315 317 319 333 336 334 332 330 329 328 332 332 333 334 333 335 335 335 334 332 331 330 330 329 327 326 324 327 329 332 330 328 322 321 323 322 320 320 320 319
316 315 315 315 315 314 314 315 314 314 316 319 331 333 330 330 328 326 328 329 332 334 334 333 334 333 334 333 332 330 329 328 327 326 324 323 331 330 330 328 325 320 320 320 320 320 319 319 320
317 318 317 316 315 315 314 314 315 313 314 320 330 331 330 329 327 328 328 332 334 333 332 332 331 332 332 331 330 329 327 325 324 326 324 326 330 329 328 327 323 319 320 320 320 318 318 319 319
316 317 317 316 316 314 314 313 312 314 313 322 331 329 331 328 326 328 330 330 333 333 332 331 331 332 331 331 330 329 326 327 327 328 327 329 329 329 326 324 320 319 317 317 318 314 317 319 320
316 315 315 315 313 313 313 313 313 314 313 313 324 323 325 327 326 329 330 330 332 331 330 330 331 330 331 330 328 326 326 327 328 329 329 328 328 328 325 322 317 314 317 315 313 311 318 321 318
317 315 315 315 314 314 312 315 315 314 312 312 316 324 325 325 326 328 330 330 330 329 328 329 329 330 329 329 328 328 328 327 328 328 328 326 328 328 326 320 316 314 311 309 311 314 319 319 318
316 316 316 316 315 315 314 316 316 314 313 312 311 323 325 325 322 327 329 330 329 328 327 327 328 330 328 328 327 328 327 328 326 326 324 325 328 328 325 318 314 311 308 315 316 315 316 318 320
317 317 315 315 315 315 316 318 317 316 312 314 312 317 326 326 323 324 329 329 328 327 326 327 328 329 328 327 327 326 326 327 326 325 325 326 327 327 325 318 315 311 311 318 319 319 318 318 321
315 316 316 316 315 316 316 317 319 318 313 313 316 318 325 327 324 326 328 328 327 326 326 326 326 328 328 327 327 326 326 325 325 325 324 325 324 324 325 320 316 315 314 316 320 320 320 320 320
314 316 317 316 316 317 317 318 316 316 315 315 318 316 324 325 323 326 327 326 325 325 325 324 325 325 326 325 325 325 326 325 324 324 323 323 323 322 323 324 319 321 318 319 318 320 318 319 320
311 312 316 317 316 317 318 318 316 315 315 314 317 318 320 326 325 326 327 326 325 325 324 324 324 325 324 324 324 323 323 322 323 322 321 322 322 321 324 324 323 322 323 321 322 320 318 318 319
320 311 311 315 317 320 318 321 318 316 316 316 315 315 317 326 325 326 327 325 324 324 325 324 323 322 322 321 322 322 321 321 321 321 321 321 321 322 323 324 323 321 323 323 322 319 318 318 318
318 320 319 319 318 317 319 318 318 315 317 316 315 312 316 325 325 326 327 326 325 324 324 323 323 322 321 322 321 321 322 321 321 321 321 321 322 320 321 320 322 320 322 321 320 319 318 318 318
320 320 320 317 317 321 320 320 319 316 318 318 317 315 317 325 326 324 325 326 324 324 324 323 322 322 321 321 322 321 321 321 320 320 319 320 320 319 318 318 320 319 319 319 319 318 318 317 316
319 321 323 325 322 324 321 321 321 318 317 318 318 317 316 326 326 325 324 325 324 323 323 322 322 322 321 321 321 321 320 320 319 320 320 320 319 318 317 317 318 320 318 317 319 317 317 314 314
319 322 324 330 328 324 320 321 319 318 318 317 317 315 317 326 326 326 324 324 325 324 322 322 322 322 322 322 321 321 320 319 319 319 319 319 319 319 320 317 318 317 317 318 318 320 317 314 314
319 324 320 322 322 326 325 322 321 319 317 317 316 318 322 326 326 327 325 324 324 323 322 322 322 322 322 322 321 320 320 319 318 318 319 319 320 319 319 318 316 315 316 315 314 316 321 321 320
318 319 324 326 329 329 325 323 326 321 320 319 318 317 321 327 327 327 326 325 324 324 323 322 322 322 322 322 322 321 320 320 319 318 318 318 318 319 320 319 317 316 317 318 320 320 318 318 318
319 322 321 322 325 329 328 330 326 323 318 319 320 320 320 320 322 325 326 326 326 325 323 323 322 321 322 322 322 322 321 321 320 319 318 317 318 318 318 319 320 319 317 317 317 319 321 322 322
318 321 322 326 326 324 326 328 326 324 320 316 320 320 319 319 319 320 322 324 326 326 324 323 322 321 321 322 322 322 322 322 322 321 319 318 316 317 317 317 318 319 319 319 319 318 318 321 322

GFSSGP_925_thetae_069.txt.gz
Theta_e
317 315 312 317 316 312 316 315 314 316 319 321 322 321 321 326 325 323 339 340 343 342 341 339 338 335 335 336 336 335 334 336 340 341 341 339 338 337 336 336 337 337 338 340 340 340 339 338 336
317 312 314 310 316 316 313 314 317 316 319 319 324 327 330 339 341 340 340 340 343 341 340 339 338 336 334 334 336 336 334 333 336 339 339 338 337 336 335 334 335 336 337 338 340 338 337 336 335
315 314 312 313 313 315 313 316 317 315 316 318 320 322 332 337 340 339 339 339 342 341 339 339 339 336 335 334 335 335 335 334 334 335 336 336 335 334 331 333 335 335 336 337 338 336 335 335 334
315 312 310 314 315 313 314 316 315 314 315 315 319 328 330 334 339 340 340 341 342 341 340 338 338 338 336 335 335 335 335 334 333 333 333 330 328 328 331 333 334 334 334 335 337 334 334 333 332
312 308 314 313 314 312 313 314 313 314 316 316 320 329 332 337 338 340 341 341 342 342 340 339 338 339 339 337 335 335 336 333 332 332 331 330 331 334 334 335 335 335 334 334 333 333 332 331 330
309 307 311 314 313 312 312 312 314 315 316 316 320 332 334 337 338 339 338 339 339 340 341 339 339 340 340 340 337 335 335 335 332 333 334 336 335 335 336 336 335 334 333 333 332 331 330 329 328
308 308 311 311 312 312 314 313 315 315 316 316 323 335 335 336 337 337 338 338 337 339 340 341 340 341 342 340 340 337 335 335 335 333 328 336 335 335 336 336 334 333 332 331 331 329 328 327 327
308 308 312 311 314 313 314 314 314 314 315 321 330 337 338 334 336 336 336 338 338 338 336 338 341 339 338 337 337 337 336 332 332 333 333 331 332 332 332 333 333 333 332 331 330 328 328 325 324
308 312 310 313 314 313 314 313 312 314 318 320 322 333 331 335 336 334 333 335 337 338 337 338 339 338 338 338 336 338 336 329 325 329 331 332 326 330 331 331 332 331 329 330 328 327 324 323 324
314 312 312 311 312 313 312 312 313 314 314 315 330 333 334 335 334 332 330 330 335 336 337 336 337 336 336 336 335 337 334 325 330 331 330 328 329 330 327 329 331 329 329 327 325 321 320 323 324
313 316 313 313 313 312 312 313 313 313 314 315 325 334 334 333 331 330 330 331 334 336 335 334 334 336 336 334 334 334 333 328 331 331 328 326 326 328 327 328 330 328 328 325 322 319 322 323 322
314 313 314 315 314 312 313 312 312 311 314 313 314 332 333 332 330 328 328 329 334 334 333 333 334 335 335 334 333 333 333 332 330 327 326 327 325 324 327 328 328 327 327 323 322 319 322 322 321
315 316 315 315 314 313 313 312 313 313 313 310 324 332 332 331 329 327 329 330 331 333 333 333 333 333 332 333 332 331 331 331 331 328 326 326 327 327 329 329 327 325 326 324 321 320 320 320 320
314 314 315 316 317 315 315 314 311 313 311 316 331 331 330 329 326 325 327 329 331 333 332 332 331 330 331 332 331 329 328 327 327 326 325 325 327 329 329 328 327 323 324 323 320 318 319 320 320
314 314 313 313 313 312 313 311 309 311 311 317 330 330 328 328 325 326 327 329 332 332 331 331 330 329 330 331 330 329 328 326 325 325 325 326 328 328 328 327 326 321 320 320 320 317 318 320 320
316 315 316 314 313 313 312 315 313 312 312 310 324 328 329 328 325 327 328 330 332 331 331 331 330 330 329 330 329 328 328 327 327 327 325 324 328 327 327 326 324 320 320 319 320 316 317 319 320
314 316 315 315 314 313 312 314 313 313 313 311 310 320 324 328 324 327 328 330 331 331 330 329 330 329 328 329 329 327 327 327 327 326 328 327 328 327 326 324 321 319 319 319 318 314 317 318 320
316 316 314 315 314 314 314 313 315 315 314 314 312 312 322 325 326 325 327 329 330 329 328 328 332 328 327 329 328 327 326 326 325 327 328 328 327 327 325 321 318 317 317 317 315 312 317 317 320
314 314 314 314 316 314 314 313 314 315 314 312 311 308 322 324 324 325 327 327 328 327 327 327 327 326 327 328 327 326 326 325 325 327 327 327 327 327 325 320 316 316 315 313 312 315 317 317 320
308 311 315 315 316 315 313 314 314 315 315 313 313 311 314 323 321 327 326 325 325 325 326 327 328 325 327 327 326 326 325 325 325 326 326 324 325 327 324 322 316 313 311 314 315 316 317 318 320
311 309 313 316 315 314 314 315 316 317 314 313 312 313 317 323 323 328 327 325 325 324 324 326 327 327 326 327 326 326 325 324 324 324 324 324 324 326 324 323 318 315 312 316 317 318 318 318 319
314 311 315 311 311 315 315 319 317 317 316 315 314 313 315 323 324 327 326 325 324 324 324 325 324 325 326 326 325 325 325 324 324 323 323 323 324 325 325 324 320 318 315 317 318 319 319 319 318
316 320 320 319 318 317 317 317 317 316 316 315 314 312 312 322 324 326 326 325 324 324 322 323 324 324 324 325 325 324 323 322 322 323 322 322 322 322 322 322 323 318 319 317 318 318 319 319 319
316 320 319 319 317 319 316 318 319 319 318 317 316 315 311 319 323 324 326 325 324 323 322 322 322 323 323 323 322 322 321 320 321 321 321 321 322 322 321 321 323 322 321 321 319 320 319 318 318
318 322 323 322 320 320 318 319 319 319 317 317 317 316 312 317 323 324 325 324 323 323 322 321 321 321 322 322 321 321 321 320 320 321 321 321 321 321 321 321 320 321 321 321 322 320 319 317 318
317 323 325 325 326 323 320 322 320 320 318 317 316 316 315 314 323 324 325 324 323 323 322 321 321 321 321 321 321 321 321 321 319 320 320 321 321 320 320 319 319 321 321 321 321 321 320 319 318
321 322 321 324 324 323 323 322 321 319 318 319 315 314 314 318 324 323 325 324 323 323 322 321 321 321 320 320 320 321 321 321 320 319 320 320 320 320 318 318 318 320 319 319 318 319 319 318 317
319 320 324 325 329 327 325 328 329 323 319 320 320 318 321 324 324 323 324 324 324 323 322 321 321 321 320 321 320 320 320 320 320 319 319 319 320 319 318 318 317 318 319 320 319 318 317 318 317
321 324 320 323 326 328 327 332 326 326 322 319 320 320 319 321 324 324 323 322 323 322 321 321 321 321 320 320 320 320 320 320 319 319 318 319 319 319 319 319 318 318 318 318 318 317 316 316 318
317 320 322 325 326 326 328 329 325 324 320 318 319 319 319 321 322 323 323 323 323 323 322 322 321 321 321 321 321 320 321 320 320 319 318 318 319 318 318 319 319 319 318 317 318 319 319 319 318

GFSSGP_925_thetae_075.txt.gz
Theta_e
312 314 313 317 318 318 316 316 315 317 318 318 320 321 323 323 333 329 334 341 338 338 339 341 338 343 338 337 336 337 341 344 342 341 339 338 338 338 338 337 338 340 341 342 341 342 341 342 338
316 313 313 317 317 314 313 315 317 318 318 317 323 326 328 328 336 336 341 340 337 337 337 337 336 342 338 337 336 337 345 346 343 341 340 338 337 338 337 335 338 338 339 340 341 341 343 339 338
314 312 316 321 318 313 313 314 319 317 316 315 321 323 325 330 339 337 336 338 338 337 336 337 337 343 339 336 336 336 341 345 342 341 340 338 337 338 337 337 338 338 338 339 341 340 340 338 336
313 314 313 317 317 316 313 315 316 316 315 316 318 321 326 332 338 337 335 339 339 338 337 338 339 343 343 337 336 336 336 342 345 342 340 339 338 338 337 337 338 337 338 339 339 338 337 336 335
311 312 314 317 316 315 314 314 314 316 315 316 317 319 328 334 335 337 336 337 338 337 336 338 340 343 342 339 336 336 337 336 344 343 342 340 341 340 337 337 337 336 336 339 338 338 336 335 334
312 312 313 312 314 315 315 314 315 315 315 316 316 317 322 335 338 337 337 337 338 335 336 337 340 341 340 340 338 336 335 336 338 344 342 341 339 339 336 336 335 334 336 337 337 336 335 334 333
312 314 312 312 313 314 314 312 314 315 315 318 317 320 327 337 338 337 338 338 339 338 338 338 339 343 340 340 339 336 334 333 335 336 336 337 335 336 335 333 332 333 336 336 336 335 334 333 332
310 313 312 312 312 313 313 314 314 315 316 317 327 326 327 333 337 339 339 339 340 340 338 339 340 344 341 340 340 337 335 333 333 334 334 334 333 333 331 329 330 332 334 335 334 334 333 332 330
308 313 313 312 312 313 313 314 313 313 314 314 316 321 330 333 336 337 337 338 339 339 339 339 340 342 339 340 339 336 335 334 333 333 333 331 330 327 325 328 329 331 332 334 334 333 331 330 328
314 314 313 311 312 312 313 313 314 314 315 315 315 323 333 335 336 337 337 338 338 338 338 337 337 338 339 340 338 336 335 334 333 333 332 330 328 327 325 324 328 330 331 332 332 331 330 328 327
315 314 312 312 312 311 313 314 314 314 315 316 316 316 325 334 335 336 335 336 338 337 336 335 336 341 340 338 337 336 334 334 334 333 331 329 327 326 326 329 328 329 329 331 330 329 328 327 326
313 314 314 313 313 314 314 315 315 315 316 316 316 315 314 321 335 336 335 334 335 335 335 335 335 336 337 336 337 335 334 334 333 332 329 328 329 328 328 327 328 328 329 330 330 329 327 326 324
312 311 312 313 314 314 314 315 315 315 315 315 314 314 315 315 322 332 334 333 333 334 334 334 334 333 333 335 336 333 332 333 332 331 329 328 329 328 327 326 328 328 328 329 328 326 325 324 324
310 311 311 312 313 313 314 315 315 316 315 314 314 315 315 319 324 330 333 332 331 332 333 333 334 333 331 331 335 336 333 332 331 328 328 327 327 329 327 325 327 328 328 327 325 325 324 323 322
310 312 313 313 313 314 316 317 317 316 317 316 315 314 315 319 327 331 331 333 331 331 332 332 332 331 329 330 333 333 331 331 330 328 327 327 327 328 327 326 327 327 327 325 323 323 322 322 321
311 313 314 315 314 314 315 313 315 314 314 315 315 314 313 318 327 330 331 331 329 331 330 329 332 329 329 329 332 329 331 331 328 329 328 328 328 328 327 326 326 326 326 323 321 321 321 321 321
311 313 315 315 314 315 314 317 316 313 313 314 315 315 315 318 326 329 329 328 329 330 330 329 329 329 328 327 330 329 330 329 328 326 326 327 327 327 327 326 325 326 323 321 320 321 321 321 320
311 313 315 315 315 314 315 315 314 314 315 316 316 316 316 316 321 326 327 328 329 329 330 328 328 328 327 326 326 328 327 327 327 326 327 327 327 327 327 326 325 326 321 319 319 320 320 321 320
309 310 310 310 311 312 313 315 316 316 315 315 316 315 316 315 317 322 326 328 328 329 328 328 327 327 326 327 325 327 327 327 327 327 326 325 325 327 327 326 326 325 322 320 319 319 320 320 320
309 310 311 310 310 310 311 312 315 315 315 315 317 317 316 316 316 322 327 328 328 328 328 328 328 327 327 326 326 325 325 325 326 326 326 327 326 325 326 325 325 324 322 320 318 318 320 320 319
315 315 315 314 313 313 312 313 313 313 315 315 315 315 316 315 316 320 327 328 328 327 328 328 327 327 326 325 325 325 324 324 324 325 326 325 325 324 326 325 324 322 320 320 318 317 318 319 319
318 314 314 315 315 316 313 317 315 315 316 316 316 317 317 317 315 317 327 328 328 328 328 326 325 326 325 324 325 325 324 324 324 324 326 325 325 325 326 325 324 322 319 319 318 317 317 318 319
316 316 317 317 319 319 318 318 316 315 316 316 317 317 318 317 316 320 326 327 328 328 327 325 325 325 324 324 325 324 324 325 323 324 324 325 325 326 326 325 323 321 318 317 317 316 316 318 320
316 317 318 318 319 322 318 318 318 316 316 317 318 319 319 318 317 320 325 326 327 327 325 322 324 324 324 323 325 325 324 323 323 323 323 324 324 324 325 325 324 319 316 317 317 317 317 317 319
315 316 320 321 321 320 317 319 319 317 316 321 321 321 321 319 319 324 327 327 327 326 323 322 323 322 323 323 324 325 324 324 323 323 323 323 323 323 324 324 324 322 320 315 314 314 315 316 317
316 316 320 322 322 322 318 319 319 322 320 320 320 320 321 322 316 324 327 327 326 325 322 323 322 321 320 321 322 324 324 323 323 322 322 322 322 322 323 323 324 322 319 319 315 313 312 313 317
318 319 318 325 320 323 320 320 323 322 321 321 322 323 325 325 324 319 326 327 326 324 322 322 321 320 319 320 321 321 321 321 321 321 320 321 321 322 321 323 321 322 322 320 317 314 316 316 317
318 318 325 323 322 324 321 323 328 324 323 321 322 321 323 326 325 323 326 325 325 322 321 321 322 322 320 319 322 322 321 321 320 320 319 320 321 321 321 320 321 322 322 322 321 319 318 318 317
318 318 320 320 321 324 327 330 323 323 321 321 320 317 316 319 325 325 324 324 323 322 321 321 321 321 321 320 320 321 320 320 320 320 320 320 319 320 321 321 320 320 321 321 321 321 321 320 318
316 318 320 321 323 325 325 325 323 321 318 318 316 314 313 313 314 321 324 323 322 321 321 321 320 320 320 320 319 319 319 319 318 319 320 320 319 319 319 319 319 319 320 320 319 319 320 320 320

GFSSGP_925_thetae_078.txt.gz
Theta_e
314 317 316 318 320 318 318 318 318 320 323 323 323 322 324 328 332 330 338 345 344 345 347 339 336 335 338 339 339 338 338 341 341 340 338 339 339 339 340 341 341 341 341 341 341 342 342 340 339
317 316 315 320 316 318 318 318 319 319 321 321 321 324 326 327 329 335 342 343 343 343 345 345 338 334 338 338 338 337 338 341 342 342 340 339 340 340 340 340 340 341 341 340 342 343 340 339 338
316 315 317 317 318 317 317 318 318 322 320 320 325 327 328 329 335 335 337 343 343 343 344 345 340 339 340 338 337 337 338 342 344 343 341 340 341 340 340 337 340 341 340 340 342 341 340 338 337
315 315 316 317 316 318 317 317 318 322 320 318 320 323 325 330 336 335 338 342 342 343 343 344 339 342 340 338 337 337 344 347 347 345 342 342 343 341 339 337 339 340 340 340 340 340 339 338 337
316 316 316 316 315 316 318 317 319 322 320 319 318 319 323 330 335 338 340 342 342 343 344 341 337 339 339 337 337 338 339 347 347 345 344 343 343 342 338 339 338 338 339 339 339 339 338 337 335
317 316 316 316 316 316 317 317 318 318 318 318 318 321 322 332 335 338 341 343 344 344 344 344 338 339 341 339 337 337 338 340 345 345 340 343 341 341 337 337 337 337 336 336 338 338 337 336 335
317 317 317 317 316 315 315 316 317 316 316 316 321 322 323 330 335 341 341 343 344 344 344 344 342 341 341 340 338 337 337 336 334 336 335 339 338 338 336 335 335 334 334 337 337 337 336 335 334
318 317 318 318 317 316 315 315 315 316 316 320 321 323 324 328 336 342 342 341 342 344 345 342 344 343 343 342 339 338 336 335 333 334 334 334 334 334 334 334 334 332 334 337 337 336 335 334 334
315 317 319 318 317 317 316 316 316 316 316 317 318 320 322 326 334 341 342 341 341 343 344 344 344 344 341 344 343 339 337 335 334 334 335 335 333 334 328 328 331 329 331 333 335 335 334 333 331
315 316 317 318 317 316 316 316 316 316 317 317 318 318 325 327 330 339 340 340 341 342 342 342 343 341 341 341 342 341 339 336 336 336 334 336 334 333 333 330 329 327 327 331 331 333 333 331 330
316 316 317 316 315 315 315 315 316 316 316 316 317 317 318 319 327 332 338 337 339 340 340 341 342 341 340 339 341 340 339 338 337 337 334 333 333 332 330 328 328 329 328 329 331 331 331 330 329
316 316 316 316 315 315 316 316 316 316 316 316 317 317 317 318 320 327 331 336 337 339 339 339 338 338 338 338 340 339 339 338 337 337 335 332 332 330 329 325 328 329 329 329 331 331 330 329 328
313 313 312 313 314 313 314 314 315 315 316 316 316 316 317 319 320 319 324 330 336 338 338 338 337 336 338 336 336 337 338 337 337 337 336 333 331 331 330 330 329 327 329 328 331 330 329 329 328
313 313 313 314 314 315 315 315 315 316 317 317 317 317 317 319 320 320 321 327 333 337 338 338 336 337 336 335 333 333 336 335 334 334 334 335 332 331 329 329 328 329 328 328 329 329 328 327 327
312 312 313 314 315 316 315 315 316 317 318 318 318 317 317 318 319 321 323 328 332 336 337 337 335 334 335 334 331 332 333 333 332 333 332 331 329 329 329 328 328 328 328 327 328 327 327 326 326
311 312 314 314 316 317 317 317 315 316 318 318 318 318 317 318 319 319 324 328 332 335 336 336 333 334 334 332 329 330 331 334 331 330 330 329 329 329 328 327 327 328 328 327 326 327 326 325 325
311 312 313 314 315 316 316 318 318 317 317 318 318 318 318 318 319 321 325 329 333 335 336 335 333 333 333 331 329 330 332 330 330 330 329 328 328 329 328 327 327 327 327 327 326 326 326 325 324
312 313 313 314 315 314 315 317 318 317 318 318 319 319 319 319 320 320 324 329 333 334 336 334 332 332 332 331 328 328 329 329 329 329 328 328 328 328 328 328 326 325 326 324 325 326 325 325 324
311 311 311 311 311 312 313 314 315 316 318 319 319 319 319 319 319 319 322 329 332 334 336 334 332 332 330 329 327 327 328 328 327 327 327 327 327 328 328 327 326 324 325 324 324 326 325 324 324
311 311 312 313 314 314 315 317 317 316 315 317 319 319 319 319 319 319 323 329 332 334 335 333 332 331 330 329 327 327 327 327 327 327 326 327 326 326 327 326 324 324 322 322 323 325 325 324 323
314 316 316 317 317 317 318 319 318 317 317 316 317 318 319 320 319 320 323 329 331 333 334 333 332 331 330 330 329 329 327 326 326 326 326 325 328 326 326 326 324 324 323 321 323 324 324 324 323
316 315 315 316 318 318 317 318 318 318 318 316 316 319 319 320 319 320 322 328 330 332 334 333 332 331 330 329 328 328 327 326 326 326 325 325 325 326 325 325 325 324 324 322 322 324 324 323 323
314 315 315 317 320 320 320 321 320 318 319 318 318 319 320 321 320 322 322 325 329 331 333 333 332 330 330 328 327 327 327 326 326 326 325 325 324 323 322 324 324 324 323 324 323 323 323 323 322
314 314 314 316 320 322 320 320 320 319 320 320 321 320 322 322 322 322 322 325 328 331 333 332 331 329 329 328 327 327 326 325 327 325 326 324 324 323 323 324 324 323 322 322 322 321 321 322 322
315 312 312 319 322 321 318 320 320 320 322 322 322 324 325 325 325 323 326 328 329 332 330 329 330 328 328 327 326 326 326 326 326 326 325 324 324 323 323 324 323 322 320 320 320 320 320 320 321
313 313 316 318 319 319 319 321 321 323 323 323 323 325 327 328 327 323 327 328 329 331 326 327 329 327 327 327 326 327 326 325 325 325 326 326 324 324 324 324 323 321 319 319 318 319 319 319 320
318 319 317 321 320 323 319 319 323 323 323 324 325 324 325 328 330 324 326 330 329 330 324 326 326 325 325 325 325 326 326 325 325 325 324 323 323 323 323 323 322 323 321 318 316 315 316 317 318
318 318 321 322 324 322 320 321 324 326 325 325 324 323 320 321 328 326 327 329 329 327 324 326 325 324 324 323 324 324 324 324 323 323 322 323 323 322 322 321 322 322 322 321 320 318 314 314 314
318 320 320 321 323 324 324 332 324 322 321 322 320 317 316 316 317 327 327 327 326 324 324 324 325 324 323 322 322 323 322 323 322 322 321 321 322 321 321 322 321 321 321 320 319 320 319 315 316
315 316 319 322 323 325 327 326 322 318 316 315 314 312 311 311 312 312 322 324 323 324 323 324 325 325 324 321 322 322 323 323 323 322 321 321 321 321 321 321 321 320 321 321 321 320 320 318 316

GFSSGP_925_thetae_081.txt.gz
Theta_e
317 319 319 317 319 320 320 321 323 321 322 323 325 324 324 325 330 335 338 344 342 344 343 334 333 334 335 342 342 339 342 342 340 337 336 337 339 340 341 342 342 342 342 344 343 342 343 340 338
317 318 318 319 320 321 321 322 321 321 321 324 324 325 325 326 328 333 339 343 343 343 346 344 333 334 335 337 341 341 339 341 341 340 338 338 340 340 339 342 342 343 343 343 343 343 342 339 338
319 318 319 318 320 322 320 321 321 321 322 321 322 326 329 327 329 331 339 341 339 339 343 345 336 334 337 338 339 339 339 340 342 341 341 339 340 341 339 340 342 342 342 340 341 342 341 338 338
320 319 318 319 320 321 321 322 322 320 322 321 322 324 327 328 334 334 339 340 338 339 340 345 341 335 337 338 338 338 338 342 344 343 342 341 343 341 338 339 342 342 341 340 340 341 339 338 338
318 319 319 319 319 320 320 320 320 320 322 322 321 321 323 327 330 335 338 339 340 340 342 345 339 335 336 338 337 337 339 343 345 345 345 344 342 342 338 338 341 341 339 340 340 339 338 337 337
320 319 321 321 320 320 320 320 320 319 321 323 322 321 322 325 329 334 337 340 341 342 344 346 339 337 338 339 337 337 339 345 345 345 343 344 341 340 338 337 337 337 337 337 338 339 338 337 336
320 321 320 320 320 321 320 319 319 319 319 319 320 320 322 325 331 334 337 341 343 344 345 347 343 341 339 339 338 337 338 340 342 342 338 339 338 337 339 336 336 336 335 336 337 338 338 336 335
320 321 321 321 321 320 320 318 319 318 318 319 319 320 321 329 329 337 340 341 343 345 345 347 345 345 344 343 339 338 337 338 337 337 335 336 337 337 337 335 334 334 333 334 335 335 337 335 335
320 321 322 321 320 321 320 319 319 319 318 318 319 320 321 326 326 336 339 341 340 344 345 345 345 345 344 343 342 339 338 336 336 336 336 335 337 336 334 329 332 333 332 332 333 331 335 334 334
319 320 320 320 320 320 320 319 319 319 318 318 318 319 319 325 324 331 338 341 339 342 344 347 345 344 344 341 343 343 342 339 338 336 337 337 337 336 331 331 326 330 331 330 331 330 331 333 332
317 318 319 318 319 318 319 319 318 318 319 319 319 319 319 321 321 327 332 337 339 341 342 343 345 343 343 340 341 343 341 340 338 338 338 337 337 334 330 329 327 331 329 329 330 329 330 332 331
318 318 318 318 318 318 318 317 317 318 318 318 319 318 319 319 320 322 326 333 336 339 341 342 344 342 341 339 343 341 339 338 339 339 338 335 336 335 332 333 332 330 328 327 328 328 332 331 330
314 315 315 316 315 315 316 316 316 317 317 318 318 318 319 318 318 319 321 327 334 336 339 341 342 340 340 339 339 341 339 339 339 338 337 335 335 334 332 332 332 330 329 326 329 329 332 331 329
314 314 314 315 314 315 315 315 316 316 316 317 318 318 319 318 319 319 321 322 328 334 338 340 341 339 338 338 337 339 339 339 339 338 337 335 334 333 332 330 331 331 330 327 328 329 330 330 328
314 314 314 314 314 314 315 316 317 317 317 318 318 319 320 319 319 319 321 322 324 329 337 340 341 339 338 337 337 337 336 336 335 336 336 335 334 333 332 332 331 329 328 327 327 329 329 329 328
312 313 313 314 315 316 317 317 317 318 318 319 319 320 320 320 319 318 320 322 324 329 336 340 340 338 338 336 335 334 334 335 334 334 334 334 333 333 331 330 330 329 327 328 328 328 328 327 326
312 312 313 314 315 316 317 318 319 319 319 318 319 320 320 320 319 318 320 321 325 331 336 340 339 337 337 336 333 331 331 332 333 333 331 332 332 331 330 329 329 327 328 328 327 327 327 326 325
311 313 314 315 314 316 317 316 316 317 318 319 320 320 320 320 319 319 320 323 327 332 336 339 338 338 336 334 332 332 330 329 330 330 332 331 330 329 330 328 328 327 327 327 326 326 326 326 325
312 312 312 313 312 312 313 314 314 314 315 317 320 320 321 321 320 319 321 323 329 333 337 339 338 337 335 333 332 331 331 331 330 329 329 329 329 329 330 329 327 326 326 326 326 326 325 325 324
311 312 312 312 313 315 316 317 317 317 316 316 317 320 321 321 321 320 321 323 331 334 337 339 337 336 334 332 331 330 331 331 330 330 328 328 327 328 328 328 327 326 325 326 326 325 325 325 323
312 312 313 315 316 316 316 317 318 319 319 318 318 318 319 322 321 320 320 324 331 333 337 338 337 335 333 332 331 330 328 330 329 330 330 328 329 329 328 327 326 325 325 324 324 325 325 324 324
314 314 315 316 316 316 317 320 318 317 318 319 319 319 319 321 321 321 320 324 330 332 335 337 336 335 333 332 330 330 330 328 329 329 329 328 329 329 328 325 325 325 324 322 322 325 325 324 325
315 315 317 316 315 315 316 318 317 319 320 320 320 319 319 320 321 320 320 322 328 332 335 336 336 335 333 332 331 330 328 329 329 328 328 327 326 325 324 326 324 324 323 323 322 324 324 324 324
313 315 316 315 314 317 317 318 318 320 322 322 322 322 321 321 322 322 320 320 326 331 335 336 335 334 333 333 331 329 328 328 329 328 328 326 325 324 324 325 324 324 323 323 322 324 324 324 324
315 316 314 313 319 320 318 319 319 320 324 323 324 324 326 326 326 324 322 323 325 331 335 335 335 333 333 332 331 329 328 329 327 328 327 325 324 323 322 323 323 323 324 324 323 323 323 324 324
314 315 314 317 318 321 321 321 324 324 323 324 325 326 326 328 331 328 325 325 328 331 334 335 335 332 333 332 330 328 328 328 329 328 327 326 325 324 323 323 323 322 323 324 324 324 324 324 324
316 316 314 316 318 318 316 317 323 325 324 324 325 325 325 324 326 330 326 329 329 333 334 333 333 330 331 331 330 327 327 327 327 327 327 327 326 325 323 324 323 322 323 323 322 323 322 322 323
315 317 322 319 321 321 319 319 331 327 325 324 323 321 320 318 318 325 328 330 330 333 330 329 330 328 329 330 328 327 327 326 327 327 326 325 324 324 325 323 323 323 322 322 321 320 321 320 320
317 318 319 321 322 323 325 331 324 321 320 319 318 317 314 312 311 316 321 330 331 328 326 328 327 327 327 327 327 325 325 326 326 326 325 324 325 324 323 323 322 321 320 321 318 317 317 316 317
314 317 318 322 319 322 324 325 319 319 317 315 316 312 309 307 306 307 311 313 325 325 325 326 327 325 325 325 325 324 324 324 324 324 324 323 323 323 322 322 322 322 321 321 320 319 317 315 315

GFSSGP_925_thetae_084.txt.gz
Theta_e
310 317 320 321 318 319 320 320 321 322 322 323 324 325 324 324 332 338 344 342 347 345 333 335 336 339 342 342 342 343 342 342 340 337 336 336 338 338 338 339 341 341 343 345 344 342 341 337 335
316 320 320 319 318 319 320 321 322 322 323 325 325 324 324 324 327 338 342 342 345 344 331 332 332 333 336 341 341 341 342 342 341 339 336 337 337 338 339 341 342 342 343 344 344 343 342 339 337
316 319 319 319 319 319 321 321 323 323 322 322 322 322 324 326 326 336 342 342 343 344 341 337 331 332 332 334 341 341 340 342 342 341 339 337 337 337 339 340 341 342 342 343 343 343 340 338 338
316 320 319 319 319 320 320 321 322 322 322 322 321 321 326 328 334 336 340 339 339 342 343 341 331 332 333 335 337 339 340 340 342 342 341 340 339 338 338 339 340 342 342 340 342 341 339 337 337
314 321 320 320 319 319 320 321 321 321 321 322 322 321 323 327 329 337 340 338 338 341 343 345 341 333 334 336 338 339 339 340 344 344 343 342 341 338 338 338 339 341 340 339 340 341 338 337 337
320 320 321 321 320 320 321 321 321 320 320 321 322 321 321 322 328 333 338 339 340 343 347 345 343 336 336 338 338 338 339 341 343 343 344 344 343 340 338 337 337 338 337 337 337 338 338 337 337
322 322 321 321 321 321 321 323 321 320 320 319 321 323 323 322 328 334 338 340 342 343 347 347 340 338 338 338 338 338 339 340 343 343 344 343 341 339 338 337 336 337 337 336 335 337 337 336 336
323 322 321 321 321 321 321 321 321 320 319 321 320 320 320 327 331 335 338 341 343 345 346 348 343 339 339 338 338 338 337 339 340 342 342 340 338 339 338 336 327 331 334 334 334 336 337 336 335
321 322 322 321 321 321 321 321 321 320 319 319 319 319 322 327 328 335 337 339 344 346 346 348 346 346 345 344 341 337 337 338 338 338 338 338 337 337 337 332 329 331 329 334 333 333 332 334 333
318 323 321 320 321 321 320 320 320 320 319 319 319 320 320 323 324 327 338 340 343 346 346 347 344 346 345 344 342 341 339 337 337 337 337 337 336 336 337 334 331 329 331 331 332 332 330 332 332
315 319 319 319 319 319 319 319 319 319 319 320 320 320 321 323 324 328 328 336 340 343 346 348 344 346 345 342 343 341 342 341 339 338 337 337 337 336 334 331 329 327 328 331 330 327 329 331 331
316 316 316 317 318 318 317 318 318 319 319 319 319 320 320 320 324 325 326 328 337 340 344 348 345 344 344 341 341 341 343 341 339 338 337 337 337 335 332 331 326 327 331 332 331 331 329 329 332
314 314 315 317 316 317 316 316 316 317 318 318 318 319 319 319 320 320 320 322 327 337 341 344 346 344 344 342 341 342 341 339 338 338 337 337 337 335 333 331 329 329 331 330 331 330 328 329 331
314 314 314 314 314 314 314 315 314 315 315 316 316 317 318 319 319 319 318 319 325 330 340 343 345 344 342 341 340 340 340 340 339 337 337 336 335 335 334 334 332 332 330 330 329 327 328 329 329
315 315 315 315 314 314 315 315 315 316 316 316 317 318 317 318 319 319 318 319 322 328 334 342 343 342 341 339 339 338 337 340 339 338 336 336 335 334 332 332 333 331 331 329 327 327 327 329 329
313 313 312 312 313 314 314 315 315 316 317 318 318 318 319 319 319 320 319 319 321 326 331 343 343 341 340 338 337 336 336 338 337 335 335 335 334 333 332 331 331 331 331 329 327 327 327 328 328
313 314 313 313 313 314 315 316 317 318 318 319 319 319 319 320 320 320 319 319 319 323 328 343 342 340 340 338 336 335 334 336 334 333 334 334 333 332 332 331 331 330 329 329 328 327 327 328 327
313 314 314 313 313 314 314 315 316 317 316 316 317 319 320 320 321 321 320 318 319 322 334 343 342 340 339 338 335 331 331 332 333 333 333 332 332 332 332 331 330 330 328 327 327 328 328 327 326
313 313 313 313 312 312 313 313 313 314 314 315 315 316 319 320 321 320 320 318 321 326 339 343 341 339 339 335 332 332 330 330 330 330 330 331 331 331 331 330 329 328 328 327 328 328 327 326 325
312 312 312 312 312 313 314 315 316 317 318 317 315 316 317 320 320 321 321 321 326 334 338 343 340 339 338 335 332 333 331 331 329 329 328 329 330 330 330 329 328 327 326 327 327 326 326 326 325
313 312 312 312 312 314 316 316 316 317 316 317 317 317 316 318 320 321 322 322 329 334 339 342 340 339 337 334 333 331 331 330 329 329 329 329 328 328 329 329 328 327 326 326 326 325 325 326 325
314 313 313 315 315 318 315 318 316 315 317 319 319 318 318 318 318 321 322 322 332 333 339 340 340 338 337 334 332 331 330 330 329 329 329 329 330 329 329 327 327 327 326 326 326 325 325 325 324
311 313 315 315 317 318 317 315 315 316 317 318 319 321 320 319 319 321 322 322 332 333 339 340 339 337 336 334 332 331 330 329 329 330 329 329 328 329 329 328 326 326 326 325 325 325 325 324 324
314 314 314 315 317 320 318 314 315 316 322 323 324 324 327 322 320 320 322 321 329 332 338 339 338 336 335 334 332 331 330 329 328 329 328 327 326 325 326 326 326 324 325 325 325 323 323 324 324
315 316 315 315 315 318 321 324 319 324 324 323 324 327 327 327 328 330 329 322 323 333 338 339 338 336 335 334 334 331 331 329 328 328 328 325 325 323 322 323 325 324 324 324 324 323 324 323 323
314 315 318 315 319 317 317 328 326 323 325 324 324 323 323 323 322 324 325 323 327 335 338 338 337 336 335 335 333 331 329 327 328 329 328 326 325 325 322 323 324 323 324 324 323 320 323 322 323
314 315 314 317 316 317 317 320 327 324 323 322 321 320 319 318 317 319 320 323 328 334 338 337 337 335 335 334 332 330 328 327 329 328 327 326 325 324 323 323 323 324 324 323 323 322 323 322 321
314 315 321 322 321 318 316 320 329 324 322 320 319 318 316 314 312 313 313 317 334 336 336 335 335 333 334 333 332 329 328 326 327 327 328 328 326 325 324 323 323 322 323 324 324 323 323 323 323
315 317 316 319 320 322 326 328 319 321 320 319 318 315 312 309 307 307 308 309 315 330 330 329 330 330 331 331 330 328 326 326 327 327 326 325 325 325 325 323 322 322 323 323 323 323 323 323 322
314 314 318 322 319 321 322 324 321 320 319 318 316 313 309 305 304 303 303 304 306 310 319 327 327 328 328 328 327 326 325 327 327 326 325 325 324 324 323 323 323 322 322 322 322 322 321 321 321

GFSSGP_925_thetae_087.txt.gz
Theta_e
309 312 316 319 316 311 313 314 316 317 317 320 322 322 321 320 335 342 347 344 341 339 341 341 340 340 340 341 342 342 342 341 339 337 336 335 336 336 338 340 342 341 344 343 341 341 340 339 339
307 315 319 315 312 312 312 315 317 317 318 322 322 321 321 322 334 342 345 345 341 337 339 340 337 337 338 341 342 342 342 341 340 338 336 336 336 337 337 339 341 341 343 344 342 343 341 336 335
311 318 315 313 312 313 312 315 317 318 318 321 321 320 321 324 336 341 345 345 338 334 335 335 333 333 336 340 340 341 342 342 341 340 337 336 336 337 338 339 340 341 343 344 344 343 339 335 335
314 315 313 314 314 313 314 315 315 316 319 320 320 319 324 332 335 341 344 344 342 332 332 330 330 331 333 337 340 340 340 341 341 341 339 337 337 337 338 338 339 341 341 342 343 342 339 336 336
312 311 315 314 315 315 316 316 317 317 318 320 319 320 321 332 340 340 341 343 343 341 338 330 330 330 332 333 337 339 340 340 341 341 341 340 338 338 338 338 338 340 341 339 342 341 338 336 336
310 312 316 318 317 316 316 316 316 318 318 318 319 319 319 323 339 339 338 341 341 343 344 340 335 331 332 335 337 338 338 339 341 342 342 342 341 339 338 337 337 337 337 337 337 338 338 336 336
315 315 317 316 317 317 318 318 317 318 319 317 318 321 318 332 335 338 338 340 341 343 344 343 338 332 333 336 337 336 337 339 342 342 342 342 342 342 339 338 337 337 336 336 335 336 337 336 336
315 317 320 319 319 318 318 319 318 317 316 319 319 317 317 331 337 338 340 341 343 342 345 343 336 333 334 337 337 337 337 338 340 341 342 343 342 341 339 339 338 336 328 330 334 335 336 336 335
317 320 323 322 320 319 319 319 318 317 316 318 318 317 326 331 331 335 341 344 344 345 345 346 338 335 335 335 336 337 336 337 338 342 343 340 338 338 339 338 336 332 325 325 329 334 333 331 333
310 317 320 318 318 319 318 317 315 316 317 318 317 318 324 327 330 333 334 336 346 346 347 346 345 342 340 341 340 336 336 336 337 337 337 338 338 337 338 336 332 327 327 328 329 334 331 331 332
310 312 313 317 318 317 316 315 315 314 316 317 317 317 317 321 322 323 332 335 345 345 348 347 345 346 345 344 341 340 338 336 336 335 335 336 337 335 336 335 329 331 328 330 326 331 330 331 331
312 312 312 313 314 315 314 314 315 314 315 314 314 315 316 316 319 320 322 326 330 345 345 345 345 342 343 345 342 340 341 340 337 335 337 337 337 335 335 335 332 331 330 329 331 327 330 331 331
310 310 311 312 312 312 313 313 313 312 312 311 312 313 312 314 315 320 323 325 324 338 346 345 346 341 341 344 343 339 343 341 339 337 338 337 336 335 334 333 331 328 328 328 331 329 328 331 331
309 311 311 312 312 312 313 312 311 312 310 311 312 312 313 313 314 314 319 321 322 323 344 346 346 343 339 340 342 338 342 342 340 338 337 336 336 336 334 330 327 327 330 330 329 328 329 331 330
313 312 311 311 310 311 311 312 312 312 311 312 313 313 313 313 313 312 316 317 318 319 328 346 345 343 340 339 341 339 341 340 339 338 337 337 336 336 334 331 330 328 330 331 331 329 329 329 329
312 311 311 311 310 310 309 311 311 311 311 312 313 313 313 314 314 314 316 317 317 318 323 345 344 343 343 342 340 338 339 340 338 337 337 336 335 335 334 334 333 331 330 330 330 329 328 328 328
311 311 311 311 311 311 310 311 312 311 313 313 312 312 313 314 314 315 316 317 318 317 322 344 344 343 342 341 338 334 337 338 338 337 335 335 335 334 333 333 333 332 331 330 329 327 327 327 328
311 310 309 309 309 310 309 309 310 310 310 311 310 311 312 313 314 316 317 318 319 318 323 342 342 341 340 337 337 336 334 334 336 335 333 333 334 333 333 332 331 331 330 330 329 327 327 327 328
310 310 310 310 310 310 309 309 310 310 311 311 311 312 312 312 313 317 318 318 319 318 335 341 340 339 338 338 336 334 332 332 335 333 332 332 332 333 332 331 331 330 329 329 329 327 327 326 327
311 310 309 309 309 310 309 309 309 312 313 312 313 313 312 312 313 317 317 318 318 319 338 341 340 339 338 336 335 332 330 330 331 332 330 331 331 331 331 331 330 329 328 328 328 326 327 327 326
312 312 311 310 310 310 310 311 312 313 313 313 313 314 315 312 312 315 317 317 319 330 340 339 339 338 337 336 335 332 329 329 329 329 328 327 328 330 330 330 329 328 327 327 327 327 326 326 325
313 312 313 311 312 316 315 318 315 314 313 313 320 318 313 314 313 314 316 316 328 340 340 339 338 337 337 336 334 332 330 329 329 327 327 327 328 329 330 330 328 328 327 327 326 327 326 326 324
312 311 311 312 313 313 314 316 314 314 314 313 325 325 318 314 315 315 314 316 328 338 340 338 338 337 336 334 332 331 330 330 329 328 328 329 329 328 328 328 328 328 327 327 326 326 325 325 324
312 314 314 314 313 315 314 318 319 318 316 325 327 324 321 320 320 320 320 321 322 337 340 338 338 337 336 334 332 330 330 329 328 328 329 329 328 329 329 328 328 326 327 326 326 326 325 325 324
312 314 316 314 314 315 316 318 322 326 326 324 324 321 319 317 316 316 316 316 319 323 338 337 336 335 335 334 332 330 329 329 328 329 329 328 327 326 329 327 327 327 326 326 326 325 324 324 324
312 313 316 319 318 317 315 318 324 319 321 320 319 318 316 313 312 312 312 312 314 321 337 337 335 334 334 333 331 331 329 329 328 328 328 326 325 325 324 323 324 325 324 324 325 325 324 324 324
314 313 313 316 316 316 314 313 323 320 321 320 319 316 313 310 308 309 310 309 313 330 336 336 335 334 333 333 333 331 330 328 328 328 327 326 325 325 323 322 322 324 323 323 324 324 323 323 323
312 313 314 318 323 322 318 325 327 321 320 319 318 314 310 307 306 306 306 307 309 314 325 331 334 333 333 333 332 330 328 327 328 328 327 326 325 324 323 322 323 324 324 324 324 323 323 322 323
313 314 315 317 320 321 322 324 318 320 320 320 316 311 308 305 304 303 303 303 305 307 311 319 329 331 333 333 330 328 327 326 328 327 327 327 325 324 323 322 323 323 323 323 323 322 321 323 322
312 316 316 317 318 319 321 324 319 320 319 316 313 309 305 303 302 301 300 299 301 302 303 306 315 327 329 330 328 327 326 325 326 327 327 326 325 325 324 323 322 322 322 323 323 322 322 321 321

GFSSGP_925_thetae_090.txt.gz
Theta_e
311 309 316 318 314 308 311 312 313 314 315 315 318 320 320 320 332 329 345 344 340 338 341 342 342 342 342 342 342 342 341 340 338 336 335 335 337 339 341 342 341 341 340 342 342 340 341 340 339
308 311 318 312 312 311 310 312 314 315 315 315 317 320 320 322 339 347 346 345 338 337 340 341 342 341 341 341 342 342 341 340 338 337 336 336 337 338 339 340 341 344 343 345 344 342 340 339 339
309 317 313 314 309 311 309 312 314 315 315 315 318 319 320 327 342 345 343 340 337 338 339 340 340 340 340 340 341 341 341 340 339 337 336 336 337 337 338 339 339 343 343 344 345 344 339 337 336
314 314 311 314 313 311 312 312 313 313 314 314 317 318 322 329 340 341 343 340 337 337 338 337 337 338 340 340 340 341 341 341 340 339 337 336 337 337 337 338 340 341 343 343 343 343 338 335 335
311 309 314 313 314 313 314 314 315 315 315 315 317 318 320 334 341 343 343 336 332 333 333 334 337 339 338 338 338 339 340 340 340 340 339 337 337 338 338 338 338 339 339 339 339 339 337 335 336
308 308 314 316 314 315 314 314 314 316 317 316 315 318 317 339 343 344 342 336 328 329 331 332 332 333 333 336 337 338 338 339 340 340 340 339 338 338 338 338 338 338 338 338 338 336 335 335 336
308 311 314 315 315 315 316 315 316 316 317 316 316 317 319 330 340 343 342 340 336 331 331 331 332 331 332 334 336 336 337 338 339 339 340 340 340 339 339 337 338 338 337 336 336 334 335 333 335
312 314 318 316 318 316 316 316 317 316 314 316 316 316 317 332 337 341 343 342 342 342 340 337 333 332 335 336 336 336 337 337 339 341 341 341 342 342 340 338 338 337 336 336 335 331 334 333 333
312 316 318 319 320 320 319 318 317 315 315 315 315 314 323 334 338 343 346 345 344 343 342 341 338 332 335 336 336 336 336 338 338 341 341 342 343 342 341 339 338 336 335 335 333 329 329 333 332
309 312 318 317 318 317 317 317 317 314 314 316 315 316 327 330 337 338 340 344 346 345 344 342 336 331 334 336 337 336 336 338 337 340 342 342 341 339 339 338 338 336 333 329 329 329 328 331 330
308 312 312 312 312 313 316 317 317 315 314 315 315 315 315 322 324 331 336 343 345 343 344 344 341 332 332 335 336 336 336 336 336 339 340 339 339 337 338 338 337 335 327 326 330 331 332 330 330
310 310 311 311 311 311 311 312 313 311 313 313 312 311 312 315 320 319 328 336 343 345 343 344 343 339 334 336 340 336 335 335 336 336 337 336 337 337 336 336 333 329 327 328 328 328 329 329 330
310 311 311 311 311 311 311 311 311 311 310 309 309 310 309 310 312 317 321 326 339 344 346 345 345 342 339 340 342 339 338 336 335 335 335 335 335 335 334 335 332 329 329 330 328 329 328 327 328
308 307 308 309 309 309 311 310 309 311 309 309 309 310 309 309 310 311 315 319 321 342 345 345 345 344 342 340 343 341 338 339 337 336 336 336 335 335 334 334 333 331 330 330 329 328 326 327 329
312 312 310 310 310 309 309 309 309 308 308 308 310 310 310 311 310 309 312 315 318 322 339 345 345 344 342 341 343 342 339 342 340 338 337 337 336 335 334 333 332 331 330 330 331 327 326 327 329
310 310 311 311 310 310 308 310 309 308 308 309 310 310 310 310 311 312 312 313 315 320 329 338 343 344 342 340 342 340 340 341 342 339 338 337 336 335 335 333 331 329 328 330 331 330 329 328 328
309 311 311 310 309 309 309 310 309 308 309 309 309 308 309 310 310 311 312 313 314 315 318 336 343 344 343 340 341 340 340 340 341 339 338 337 336 335 335 333 332 329 328 333 333 329 328 329 329
310 311 308 307 307 309 308 308 308 307 307 308 307 305 306 308 309 312 314 314 314 315 314 331 340 343 341 339 340 339 340 339 338 338 337 336 335 335 334 333 332 331 329 329 331 329 329 328 328
308 308 308 308 307 309 307 307 308 308 307 308 309 310 310 310 311 310 312 314 315 315 316 334 341 341 340 338 337 336 337 338 337 336 336 335 334 334 334 332 333 332 331 329 330 329 328 328 327
308 308 308 308 308 308 308 308 309 308 307 309 311 311 311 312 312 312 311 313 316 314 319 339 340 340 339 338 336 333 334 332 331 335 334 334 334 332 333 333 332 331 330 327 329 328 327 327 327
310 309 309 311 310 308 308 310 311 310 310 311 312 313 319 319 316 313 312 311 315 314 334 339 339 338 337 336 334 333 331 331 331 332 333 333 332 333 332 332 331 329 326 328 327 327 327 327 326
311 311 311 311 310 311 312 315 312 312 312 312 312 320 319 317 318 315 316 317 317 316 330 338 338 337 336 335 333 332 330 328 329 329 331 331 331 331 331 331 329 329 328 327 326 326 327 326 325
311 311 311 310 311 312 312 312 312 316 325 323 323 321 318 315 314 315 316 316 318 329 336 338 338 336 333 334 334 331 328 327 327 328 330 327 326 328 329 330 330 329 328 326 325 326 326 326 324
311 313 312 312 312 315 312 312 314 324 322 319 320 319 317 314 312 312 313 313 313 323 338 338 337 334 333 333 332 331 328 328 328 328 327 327 327 328 328 330 329 327 327 327 326 326 326 326 325
310 311 314 315 313 315 313 315 316 319 319 318 320 319 314 312 310 310 311 312 312 315 323 337 336 333 333 332 331 330 330 329 328 327 327 326 328 328 328 328 328 327 327 326 326 326 326 325 324
309 311 314 319 316 312 313 315 322 319 317 316 319 316 312 309 308 308 309 308 310 314 325 336 335 333 331 331 329 330 330 329 328 327 327 327 327 328 328 327 327 327 326 326 326 326 326 325 324
312 312 311 314 313 316 314 319 320 319 319 319 319 314 309 306 306 306 306 305 307 310 317 334 335 333 330 329 330 330 330 328 328 327 328 328 327 327 326 326 326 325 325 326 325 325 325 324 324
312 313 311 311 317 319 316 317 323 321 320 320 317 312 306 304 303 303 302 302 304 306 309 321 331 332 330 329 330 329 329 328 327 327 328 327 326 325 325 324 322 322 323 323 324 324 324 324 323
306 309 314 314 316 318 317 316 319 319 319 320 313 308 303 302 302 300 300 300 301 303 305 310 318 330 330 330 329 329 328 328 327 328 327 327 326 324 323 322 322 323 324 323 323 323 324 323 323
306 313 317 319 318 316 316 316 319 318 318 312 308 305 302 300 299 299 298 298 298 299 301 304 309 315 329 328 329 327 328 328 327 327 327 326 325 324 323 322 322 323 323 323 323 323 323 323 322

GFSSGP_925_thetae_093.txt.gz
Theta_e
311 309 315 316 313 307 308 310 310 312 314 314 316 318 317 316 326 321 343 344 344 340 342 341 342 342 341 340 340 339 337 336 334 334 335 339 342 343 344 342 340 339 340 343 341 341 341 340 340
309 312 317 308 309 311 307 309 312 312 313 312 314 315 317 319 340 345 346 344 342 337 342 342 342 342 341 341 340 339 339 337 336 334 335 337 339 341 342 341 340 340 341 344 343 343 340 339 339
310 316 312 313 308 309 308 309 311 312 312 313 313 314 317 319 341 344 343 344 340 342 342 343 341 342 342 341 341 340 339 338 337 335 335 336 338 339 340 341 340 342 342 344 344 345 339 339 338
314 313 310 313 312 309 309 310 311 313 314 313 314 314 315 329 343 342 343 343 338 341 341 341 341 341 341 341 341 341 340 339 338 336 335 336 337 337 338 339 340 343 343 342 344 343 338 337 337
311 308 313 314 313 311 311 312 314 314 314 314 315 315 316 328 340 341 341 340 338 340 341 341 340 339 340 340 341 341 340 339 338 337 336 336 336 337 337 338 339 342 342 340 339 338 337 335 335
307 307 313 313 312 313 312 313 313 315 315 314 313 314 314 329 341 342 339 338 337 337 339 338 337 336 338 339 340 340 340 340 340 339 337 336 336 337 337 338 338 338 338 338 338 338 336 335 336
305 308 311 313 314 315 314 313 315 315 315 314 313 315 314 335 343 343 341 339 337 337 335 335 335 336 337 339 339 338 338 339 339 340 339 338 337 337 337 338 338 338 337 337 338 337 334 335 335
311 310 315 313 315 314 314 317 315 316 313 314 315 314 316 321 335 341 339 338 339 337 337 336 333 332 333 336 338 337 337 338 339 340 340 340 339 338 338 338 338 338 336 337 337 335 333 333 333
310 315 315 316 317 317 317 318 317 315 314 313 314 314 318 334 339 342 342 339 338 337 335 334 334 334 333 334 336 337 337 338 338 339 340 341 341 340 339 338 337 337 336 336 336 335 332 331 331
308 312 314 314 316 317 316 315 316 315 316 315 313 313 315 323 336 341 343 342 341 339 335 333 333 334 334 333 334 336 336 337 338 339 341 341 342 342 341 339 338 337 336 335 335 333 333 330 329
307 313 312 313 313 311 311 312 313 313 313 313 313 313 313 314 321 328 333 342 342 341 340 339 337 333 333 334 335 335 337 337 337 338 341 341 342 342 341 340 338 337 336 335 334 331 330 328 329
310 308 309 309 310 309 310 310 310 310 311 311 311 311 311 311 313 314 325 333 342 343 342 341 339 334 330 331 332 334 335 336 336 338 340 342 342 339 338 338 338 335 334 331 328 327 329 329 329
308 308 309 310 310 310 309 309 309 309 309 308 308 308 307 309 310 312 313 317 336 340 343 342 339 335 331 332 332 332 332 333 334 336 340 340 339 338 337 338 337 335 334 328 329 330 331 330 330
306 307 306 307 307 307 309 308 309 308 308 307 307 307 307 308 307 309 311 312 316 331 341 343 342 339 334 332 331 332 332 331 333 335 337 336 335 336 336 336 336 333 331 327 329 327 330 329 328
311 311 309 310 309 308 307 309 307 307 305 305 305 307 307 306 308 306 311 312 313 315 324 342 343 342 339 335 336 336 335 335 334 335 335 335 334 334 334 333 335 334 332 331 328 328 329 328 327
309 309 311 310 309 309 309 310 309 307 306 307 306 307 307 306 306 309 309 310 312 313 317 334 343 343 343 340 339 339 339 337 336 335 335 335 334 334 334 333 332 332 331 331 328 329 328 329 328
306 309 310 309 308 308 308 309 309 307 307 306 306 305 306 307 306 308 311 311 312 312 313 324 341 343 344 343 341 340 341 338 338 338 336 336 336 336 335 333 332 334 330 329 328 328 326 328 328
308 309 308 309 307 307 307 307 308 306 305 306 304 304 305 305 306 308 310 310 311 312 312 317 333 341 342 342 340 341 341 340 341 341 339 337 337 336 335 334 332 331 331 327 327 329 328 328 327
307 308 307 306 305 307 307 307 307 306 305 304 307 307 307 307 311 315 311 311 311 312 311 313 336 340 341 339 338 337 338 339 340 341 341 338 337 335 335 334 332 331 329 327 328 329 329 328 328
306 306 306 306 307 306 305 308 308 307 306 305 306 309 317 316 315 316 315 315 310 311 312 314 333 337 340 339 338 337 338 337 338 339 339 337 336 335 335 334 332 333 329 328 327 328 326 327 328
307 307 308 308 309 308 307 309 309 309 310 319 318 318 317 316 314 313 314 314 314 316 312 320 331 336 338 338 336 335 336 335 334 336 336 334 335 334 334 333 330 331 328 329 329 327 326 327 327
309 309 309 310 309 311 308 312 311 310 321 320 319 317 316 315 313 312 312 313 312 313 317 323 332 336 338 337 335 333 333 333 333 334 334 333 334 334 333 332 332 330 330 328 328 326 326 326 326
310 310 310 311 310 311 311 310 309 316 321 319 316 317 315 313 311 310 312 311 311 312 315 326 335 336 337 335 334 332 332 331 330 331 330 333 333 332 332 332 331 331 329 328 327 326 326 326 325
309 311 311 310 311 313 310 310 309 321 319 318 317 318 315 312 309 309 308 309 308 310 314 330 336 336 335 333 332 332 330 328 328 328 328 330 331 331 331 330 329 329 328 328 326 326 326 325 326
309 309 311 312 313 314 310 312 310 318 318 318 318 318 312 310 307 307 306 306 306 308 311 322 337 336 333 332 330 331 329 328 328 326 326 327 326 327 328 327 328 327 328 327 327 326 325 325 326
308 309 312 316 316 311 311 313 313 319 318 319 319 313 310 307 305 305 304 303 304 306 308 316 336 334 332 331 331 329 329 327 327 326 326 326 325 325 326 328 328 328 328 327 326 326 326 325 326
310 310 309 312 312 314 312 313 318 319 319 319 316 310 307 305 303 303 302 301 302 303 305 309 330 332 332 331 329 328 327 328 326 326 326 325 326 327 328 327 327 327 327 326 326 326 326 326 325
305 309 311 311 320 318 314 314 314 319 318 319 313 307 304 302 301 300 300 299 301 301 303 306 315 332 330 329 329 327 327 327 328 327 326 326 326 326 327 327 326 325 325 324 324 324 325 325 325
303 307 311 314 315 318 316 311 315 317 317 314 309 305 302 300 299 298 298 297 298 300 300 303 308 325 329 328 328 327 327 327 328 327 326 327 327 326 326 325 323 324 323 323 322 323 323 324 324
303 312 312 314 315 312 316 314 314 313 311 309 306 303 301 298 297 297 296 296 296 297 299 300 303 309 323 329 328 327 327 326 326 326 327 327 326 325 324 323 321 321 322 323 323 323 323 323 323

GFSSGP_925_thetae_096.txt.gz
Theta_e
312 310 315 313 309 306 308 306 309 311 310 312 311 315 314 315 319 323 342 342 343 337 339 341 341 341 339 338 337 335 334 335 336 337 339 342 342 341 340 340 337 337 340 344 342 341 341 340 340
309 313 315 307 305 307 305 308 310 310 311 310 312 314 314 316 321 340 344 344 343 338 341 341 341 341 339 338 337 336 335 335 335 335 337 339 342 342 342 341 338 338 340 341 342 341 341 340 340
310 316 310 312 305 306 306 307 311 311 311 313 313 313 314 317 329 342 342 342 343 339 340 341 341 341 340 339 338 337 336 335 335 335 337 339 342 343 343 341 340 340 341 340 344 341 340 339 339
315 312 307 310 310 309 307 310 310 312 313 312 313 314 314 317 333 340 342 342 343 340 341 341 341 341 340 340 339 338 337 336 335 335 336 338 341 342 342 341 340 340 341 341 343 343 339 339 338
311 307 309 313 312 310 309 310 313 313 313 314 314 314 313 315 331 340 342 342 339 338 341 341 341 341 341 341 340 340 339 337 336 336 335 336 337 339 340 341 340 341 341 341 342 342 338 338 338
307 306 311 310 310 311 310 311 312 314 314 314 313 313 313 319 334 341 344 342 340 340 341 342 341 341 341 341 341 340 340 338 337 336 336 336 336 337 338 339 339 342 342 340 340 338 337 337 337
305 306 308 310 313 314 312 311 314 315 316 313 313 314 313 314 328 340 342 342 341 341 341 341 341 341 340 340 340 340 340 339 338 337 337 336 337 337 337 338 339 341 339 338 338 337 337 336 335
304 305 311 310 313 313 313 316 315 317 315 313 314 314 313 315 336 341 341 340 341 341 342 343 343 341 340 339 338 338 338 339 339 339 338 337 337 337 337 338 339 338 337 337 338 337 336 335 335
308 313 312 312 314 313 316 317 315 315 315 313 313 313 313 324 340 341 340 338 340 341 342 343 345 343 341 340 338 338 338 337 338 339 339 339 338 338 338 338 339 339 337 337 337 337 334 333 332
310 311 311 311 312 315 316 315 315 315 314 314 313 312 313 315 337 340 341 340 338 338 340 340 342 343 341 338 339 338 338 337 337 338 339 339 340 339 338 338 338 338 337 336 337 336 333 332 331
305 309 310 313 314 313 311 311 311 312 312 312 312 311 310 311 312 333 336 341 341 339 337 337 337 335 335 336 338 338 338 337 337 337 338 339 340 341 340 339 339 339 337 336 336 335 333 331 332
307 306 308 310 311 309 309 309 309 309 310 309 309 309 309 308 308 312 328 332 338 341 339 336 335 336 334 334 335 337 337 336 336 336 338 340 341 341 342 341 340 338 337 335 335 334 333 332 330
308 309 309 308 308 308 308 308 309 308 307 306 306 306 306 306 306 310 311 313 316 333 340 341 339 337 336 335 335 335 335 334 336 337 337 338 340 340 341 340 339 338 336 335 334 333 331 331 329
306 306 306 306 306 306 307 307 306 307 306 306 305 305 305 306 306 307 308 310 311 314 325 338 341 340 338 336 335 334 335 334 335 336 337 338 339 341 343 336 336 335 334 333 331 329 329 328 328
309 310 308 308 309 308 307 308 306 306 306 305 304 305 304 304 305 305 308 309 310 312 313 319 336 341 340 336 334 333 332 333 333 335 337 338 338 338 339 335 333 334 332 332 329 329 330 331 330
308 308 310 309 308 309 308 309 307 307 307 306 305 304 305 304 305 306 308 308 309 309 310 312 320 336 341 339 334 333 332 331 332 333 335 338 337 335 336 336 332 331 329 329 328 328 330 330 330
306 309 309 309 308 308 307 308 308 306 306 305 304 303 303 304 304 307 311 311 309 308 310 311 315 331 337 341 338 334 333 333 333 333 334 335 336 334 334 334 333 329 328 327 328 326 329 328 328
308 308 307 308 307 306 305 306 306 305 305 304 303 302 302 306 309 314 315 315 316 315 308 310 312 327 336 340 339 337 336 335 335 334 334 334 336 334 334 333 332 329 328 328 329 327 328 328 328
307 307 307 305 304 306 306 306 305 306 304 303 303 308 315 315 314 313 313 313 314 315 314 308 310 322 338 339 338 337 336 336 336 336 335 335 335 334 335 334 332 328 328 328 328 327 327 327 327
304 305 305 304 305 305 305 307 306 305 305 312 316 317 316 314 314 313 312 312 313 312 313 315 308 317 335 338 338 338 337 337 337 336 336 337 336 335 336 334 332 329 328 328 327 326 328 327 327
306 306 306 307 307 307 306 306 308 307 315 318 317 316 315 313 313 311 310 311 311 310 310 312 316 321 331 338 338 337 336 335 334 333 336 335 337 337 336 334 332 330 328 327 328 328 328 328 327
308 307 308 308 309 310 308 310 308 312 317 318 315 313 313 312 311 309 309 309 309 309 309 310 314 318 334 337 337 335 336 334 334 333 332 332 333 336 336 334 334 333 329 328 329 328 327 327 326
309 309 309 309 309 309 310 310 307 315 318 318 315 316 313 310 309 307 307 306 306 307 307 310 314 321 333 337 336 335 335 334 333 332 321 321 331 334 334 334 333 332 329 327 329 328 327 326 325
309 310 310 308 310 311 309 308 307 312 319 317 316 317 314 310 307 306 305 304 304 305 305 307 313 325 335 336 335 333 333 332 332 332 329 329 331 332 333 333 332 330 330 328 329 328 327 326 325
308 308 310 310 312 312 309 310 310 311 316 317 318 316 310 307 305 304 303 302 302 303 303 305 309 319 335 334 333 332 332 330 330 331 331 329 329 330 331 330 330 330 331 329 328 327 326 326 326
309 308 311 314 315 311 310 312 311 316 316 317 314 310 307 304 303 302 301 300 300 301 302 303 306 312 334 333 333 331 331 328 329 328 327 327 328 329 328 329 328 330 327 326 327 326 326 325 326
310 309 309 310 311 313 310 310 311 317 318 316 310 307 304 302 300 300 299 298 298 299 301 302 304 310 331 332 330 329 330 329 327 327 327 327 327 327 327 325 325 327 326 326 327 327 326 325 325
305 307 312 311 317 316 312 312 313 316 316 312 309 305 302 300 298 298 297 297 297 297 298 301 302 308 330 330 329 328 327 328 327 327 325 326 325 325 324 324 324 326 327 327 326 326 325 325 325
300 306 311 311 314 318 316 310 314 314 311 309 306 304 301 298 297 296 295 295 295 296 297 298 301 305 313 328 327 328 327 327 326 326 324 325 325 325 327 327 326 326 326 325 325 324 324 324 325
303 311 309 310 313 310 313 312 313 310 307 306 304 302 299 297 296 295 294 294 294 294 295 296 299 302 306 319 327 326 326 327 327 325 325 325 325 325 326 326 326 323 322 323 322 322 322 322 323

GFSSGP_925_thetae_102.txt.gz
Theta_e
315 315 317 319 320 318 321 320 317 319 318 318 318 319 320 321 322 325 323 346 348 346 350 345 343 342 339 338 338 340 343 343 342 340 337 336 337 337 337 336 339 342 346 347 346 341 339 340 340
314 315 317 319 319 322 323 320 317 318 317 319 319 320 320 322 321 326 331 341 347 346 349 349 343 341 339 337 337 340 343 343 342 342 341 340 339 338 337 335 337 340 345 344 341 339 339 340 340
314 316 319 320 321 322 323 318 318 317 318 318 320 320 320 321 323 326 329 339 345 347 347 347 342 340 339 337 336 339 342 344 343 343 343 342 340 339 337 334 335 337 346 345 342 339 340 340 339
314 316 317 319 322 322 319 318 317 317 318 318 319 320 320 321 324 324 332 345 346 346 346 347 341 340 339 337 336 336 339 342 344 344 344 344 343 340 337 336 336 340 344 343 345 342 339 340 339
315 317 319 321 322 322 319 318 317 317 318 318 319 319 321 320 321 326 333 344 349 347 347 348 343 341 340 337 336 335 336 338 340 341 342 343 343 341 339 338 338 340 342 341 343 343 340 340 339
316 318 320 323 323 321 319 318 318 318 318 318 319 320 321 319 319 326 332 343 348 349 348 349 344 342 340 338 337 336 336 336 337 337 338 340 342 342 340 340 339 340 340 340 342 342 339 339 339
316 318 321 321 322 320 319 318 318 319 319 320 320 321 321 321 318 325 333 342 348 349 348 348 348 344 341 338 338 337 337 336 336 336 337 338 340 342 342 342 340 340 340 340 342 342 339 339 338
315 316 318 319 319 320 319 317 318 318 319 320 319 320 321 321 316 320 331 340 347 348 348 348 349 348 347 345 339 338 338 337 336 336 336 337 340 342 343 342 341 340 339 339 340 341 340 338 338
313 315 318 319 318 318 316 317 318 319 319 319 319 319 319 316 316 317 323 333 345 346 346 348 347 345 345 348 346 340 339 338 337 337 337 337 342 343 343 343 343 340 338 341 340 340 339 338 337
314 316 317 317 316 316 316 317 317 316 316 317 318 317 316 316 316 317 318 323 343 346 345 345 345 344 344 344 345 346 346 344 343 343 343 342 343 344 342 342 343 340 339 341 340 337 337 336 339
313 315 317 315 314 314 315 315 315 315 316 316 317 316 316 316 316 317 317 317 326 340 344 344 345 345 345 344 344 343 345 345 345 345 344 343 343 343 343 343 342 342 341 340 338 338 337 337 338
310 311 312 313 312 314 314 314 314 314 314 314 314 315 315 315 316 316 316 316 316 320 331 341 343 344 344 343 342 343 343 343 342 342 344 344 345 342 342 341 342 341 342 340 340 339 339 339 338
311 311 311 311 311 311 311 312 313 314 315 315 314 314 314 314 314 314 314 314 315 316 317 326 339 342 342 342 341 341 341 342 341 343 344 342 345 343 341 340 342 341 341 341 340 340 340 339 338
311 311 312 313 313 313 313 313 313 314 314 315 314 314 314 314 314 314 314 315 315 315 315 315 323 337 341 341 340 339 339 339 340 340 340 341 342 341 341 341 340 339 340 339 341 340 339 338 337
311 311 312 313 312 312 313 313 314 314 315 314 314 314 314 314 313 313 315 318 319 319 319 320 316 322 336 339 340 339 338 338 338 338 339 340 340 342 339 340 339 340 340 340 339 338 338 337 336
311 313 314 315 314 313 313 316 315 314 313 313 314 314 314 314 314 317 319 319 319 320 320 321 321 319 320 333 336 339 339 339 338 337 337 338 339 340 339 339 338 337 337 336 334 334 334 334 335
313 315 316 315 314 314 314 315 313 313 312 313 314 314 314 315 319 319 319 318 318 319 320 321 321 322 319 320 332 335 338 340 339 338 337 337 337 339 338 337 337 335 336 334 333 333 333 332 334
316 315 315 315 314 312 313 313 312 311 313 314 314 314 315 318 319 319 318 318 317 318 318 318 320 321 321 320 323 332 334 339 339 338 337 337 337 338 337 336 334 334 334 334 333 331 331 331 332
312 313 314 314 313 311 312 311 311 313 314 315 314 315 318 319 319 318 317 317 317 317 316 316 317 318 320 320 318 329 333 337 335 337 338 337 337 337 336 335 333 333 332 333 331 330 329 330 330
311 312 312 312 311 309 311 313 314 314 314 314 314 319 320 319 318 318 316 316 316 315 315 315 315 316 316 318 319 322 331 332 333 335 338 337 336 336 335 334 333 332 332 332 331 331 328 329 329
310 310 311 309 312 312 314 314 315 313 313 317 318 319 319 319 318 317 315 314 313 313 312 312 312 313 314 316 318 320 328 332 334 335 337 337 336 335 334 333 332 331 331 331 333 330 329 329 329
310 309 309 310 313 314 314 314 313 312 315 317 319 320 320 318 316 315 314 312 311 310 308 307 308 309 310 313 316 321 323 332 333 333 335 335 335 334 332 332 332 332 330 331 331 330 330 330 329
310 310 311 312 314 315 314 314 313 312 314 318 319 321 319 316 314 313 311 309 308 307 305 303 304 305 307 308 312 318 322 332 332 333 334 335 334 333 332 331 331 331 331 331 331 331 331 330 329
310 311 312 313 314 316 313 314 313 313 314 317 320 319 317 314 313 311 309 308 307 306 304 301 301 302 304 306 309 315 324 327 333 333 334 334 334 333 332 332 332 331 330 330 330 330 331 331 329
311 311 314 314 314 314 312 312 312 313 316 318 321 318 315 313 311 310 308 307 305 304 302 300 299 300 301 304 307 314 324 326 335 333 335 333 332 333 332 331 329 328 324 326 329 330 330 330 329
312 311 313 315 313 313 313 312 318 320 320 318 316 314 313 311 309 308 306 305 304 302 301 299 297 298 299 302 307 313 328 329 334 333 334 333 332 333 334 329 326 323 321 324 329 330 331 330 329
311 313 312 312 313 314 313 314 320 319 318 316 315 313 312 309 308 306 305 303 302 301 299 297 296 297 298 302 305 313 334 334 335 333 333 333 334 335 331 328 327 325 327 329 329 330 330 328 328
313 312 315 315 314 313 311 312 314 319 317 313 312 312 311 308 306 305 303 301 300 299 298 295 295 296 297 300 303 312 331 333 332 332 332 331 332 331 330 328 328 328 329 329 329 330 328 327 327
308 312 315 315 315 314 314 314 317 315 312 312 310 310 309 307 305 303 302 300 299 298 297 294 294 294 295 298 301 307 328 330 331 331 331 331 330 330 328 327 328 328 328 327 327 327 328 327 326
304 308 309 311 310 313 316 314 314 313 310 309 308 308 306 304 302 301 300 299 298 297 295 293 292 293 293 295 299 302 309 318 327 328 328 329 328 328 328 328 326 326 327 327 326 327 326 326 326

GFSSGP_925_thetae_105.txt.gz
Theta_e
311 316 318 321 323 323 324 325 324 322 321 321 321 321 323 323 324 327 327 338 346 348 354 342 340 342 342 341 340 339 340 341 343 341 334 334 335 335 336 338 339 341 346 346 342 343 343 338 335
319 317 319 323 323 325 326 326 322 322 321 320 321 321 322 323 323 326 330 332 339 348 349 350 344 343 341 340 339 339 339 342 344 342 335 334 335 337 337 337 338 340 345 346 346 345 344 342 341
317 318 322 323 325 326 326 323 322 321 320 320 321 322 323 324 324 326 330 336 342 345 348 352 346 342 341 339 338 339 340 342 343 342 338 335 336 338 337 337 339 342 346 346 344 342 343 341 340
317 319 321 323 325 326 325 325 321 320 320 320 320 321 322 323 325 325 330 336 346 346 348 350 349 343 340 339 339 340 342 343 343 342 342 339 338 339 338 336 337 340 343 345 341 342 341 340 340
318 321 323 324 325 326 326 324 322 321 321 321 321 322 322 323 322 324 329 336 347 350 348 348 347 344 341 338 338 339 341 343 343 343 343 343 341 340 339 336 336 336 343 346 341 341 339 339 339
320 321 324 326 326 326 326 323 322 322 322 321 321 321 322 323 322 322 328 337 348 352 349 351 348 343 341 339 337 337 339 341 343 344 344 344 343 343 340 337 336 337 341 342 341 343 340 339 339
319 323 324 325 325 326 325 323 322 322 322 322 322 322 324 323 322 320 324 334 346 351 352 351 352 345 341 339 338 337 338 338 338 340 342 344 344 343 341 339 338 338 339 340 340 342 341 339 339
318 320 322 323 324 325 324 322 321 321 321 322 322 322 323 324 321 319 320 328 342 349 351 352 351 349 347 345 338 338 337 337 337 337 339 340 342 342 342 341 340 339 340 340 340 340 341 338 338
317 319 322 323 324 324 323 320 321 321 321 321 322 321 321 320 318 318 320 324 337 348 349 349 350 350 349 348 346 339 338 337 337 337 338 339 345 346 345 344 344 340 340 339 339 339 341 340 338
318 321 322 323 322 321 321 320 320 320 320 320 319 320 319 318 318 319 320 321 326 344 348 349 347 347 347 349 349 346 344 343 342 342 343 343 344 345 345 345 344 344 341 338 338 340 340 340 340
318 320 322 322 321 319 319 318 318 318 319 319 319 320 319 318 318 319 319 320 320 328 346 347 348 348 348 347 348 348 346 346 345 345 345 344 344 344 344 343 344 344 343 341 341 342 341 340 339
318 318 317 318 319 317 317 318 318 318 318 318 318 317 317 318 318 318 318 318 319 319 328 343 346 347 348 348 347 347 347 347 345 345 345 345 344 342 342 340 342 342 343 342 341 341 340 339 339
318 318 317 316 315 315 315 315 315 316 316 317 317 317 316 317 317 317 317 317 318 318 319 321 334 342 346 347 346 346 345 345 345 345 346 344 342 342 341 340 340 342 340 342 341 340 339 338 338
316 316 316 316 316 315 314 315 315 316 316 316 316 316 317 316 316 316 316 317 318 319 319 320 319 326 338 342 345 344 344 343 344 343 343 343 344 344 342 340 340 339 340 342 340 341 340 340 339
315 314 316 315 316 317 316 316 317 317 317 317 317 317 317 316 316 316 316 319 320 321 321 323 323 320 323 336 340 341 342 341 340 341 342 341 342 343 341 341 341 339 339 340 340 341 340 340 339
316 317 318 319 318 317 316 318 319 318 317 317 316 317 316 316 316 316 320 320 320 321 322 323 324 324 325 323 329 337 338 341 341 339 340 341 342 341 342 340 340 340 338 341 340 340 340 339 338
319 319 320 321 320 318 318 318 318 318 316 316 316 316 317 316 317 320 320 320 320 320 321 322 322 323 325 325 324 325 334 338 339 340 340 341 340 340 341 340 339 339 338 340 339 339 339 339 338
322 322 322 320 321 317 319 318 318 316 315 315 316 316 317 316 319 320 319 320 320 320 320 320 320 321 322 323 324 323 324 334 337 338 340 341 341 340 341 340 339 338 337 338 337 336 336 336 336
319 320 322 320 320 318 317 317 317 316 315 315 316 316 316 318 320 319 319 319 319 319 319 319 319 319 320 320 322 322 321 326 333 336 337 340 341 341 341 340 338 337 336 338 336 334 335 334 334
317 318 319 319 318 316 316 316 315 315 315 316 317 317 318 320 319 319 318 318 318 317 317 317 316 317 317 318 319 321 322 322 328 333 335 337 340 341 339 339 338 337 336 337 336 334 333 333 332
317 317 316 317 317 316 314 314 315 316 317 316 315 318 320 320 319 318 317 317 316 315 314 314 313 313 315 316 316 318 321 322 324 333 334 335 338 339 339 338 338 336 335 335 334 333 332 331 331
316 314 313 315 315 314 315 318 318 317 315 315 318 320 320 320 318 317 317 315 314 313 312 312 311 311 311 313 314 315 319 322 322 327 333 334 335 338 339 338 336 335 334 334 334 333 332 332 331
315 312 313 315 312 314 316 318 318 316 315 316 319 320 320 319 317 316 315 313 312 312 311 310 309 308 309 309 310 310 313 318 323 324 332 334 336 337 337 337 336 334 332 333 334 333 332 332 331
312 314 313 314 314 317 317 317 318 316 315 317 320 320 319 317 316 315 313 311 311 310 309 308 307 306 306 304 304 306 309 313 320 325 330 334 337 336 337 335 335 333 333 332 333 326 333 333 332
313 316 317 318 319 322 316 316 317 315 315 318 321 320 318 316 315 313 311 310 309 308 307 306 304 303 303 301 302 304 307 310 316 323 328 335 336 335 334 335 333 333 333 327 320 318 331 333 333
314 315 316 319 317 316 314 315 321 320 321 320 319 318 316 314 312 311 310 308 307 306 305 303 302 301 300 299 299 301 305 309 315 322 328 332 336 335 333 333 332 332 332 327 328 332 333 333 333
316 316 312 315 315 317 318 320 322 320 319 319 317 316 314 312 311 310 308 306 305 304 303 301 301 300 298 297 297 300 304 310 321 328 329 333 336 335 332 333 332 333 332 332 332 331 331 332 332
312 314 314 315 320 316 316 317 321 322 319 317 314 313 311 310 309 308 307 305 304 303 302 300 299 298 296 295 296 299 302 307 324 330 332 333 334 335 334 333 331 329 328 329 329 329 329 331 332
311 318 316 317 317 318 318 321 320 320 316 314 312 310 308 308 307 307 306 304 303 302 301 299 297 296 295 294 295 298 300 303 313 330 331 332 333 333 332 332 331 330 328 323 324 325 327 330 331
308 310 312 318 315 317 315 317 316 315 313 310 308 307 307 306 305 305 305 303 302 300 299 298 295 295 294 292 293 295 297 299 304 314 325 331 332 332 331 330 330 330 328 328 323 323 324 328 330

GFSSGP_925_thetae_108.txt.gz
Theta_e
312 313 318 320 323 324 325 324 326 323 323 322 321 321 322 322 324 329 333 334 340 353 349 341 344 343 342 341 341 341 341 340 340 340 336 333 334 333 335 336 339 338 338 341 339 337 338 338 336
317 321 319 321 325 326 325 326 324 322 322 321 321 321 321 322 324 326 331 334 341 349 353 343 342 342 342 341 341 341 340 340 341 341 338 333 334 335 335 336 338 338 345 345 341 341 342 341 336
318 320 320 324 325 326 326 325 323 321 321 321 321 322 323 325 326 326 330 334 343 342 353 351 343 340 342 341 341 340 339 340 341 343 340 334 334 336 335 336 336 338 344 345 346 345 344 344 340
318 319 321 324 325 325 326 326 323 322 321 321 321 321 323 324 326 325 328 334 343 347 348 353 349 342 342 341 340 339 339 340 342 343 341 334 334 337 337 337 336 338 344 345 344 342 341 341 340
318 321 323 324 324 324 325 325 324 322 323 322 322 321 322 324 323 323 327 334 346 351 350 351 349 346 342 341 340 339 340 341 343 342 341 337 336 337 338 337 336 338 343 345 343 340 340 340 340
320 321 324 325 325 325 326 326 324 324 323 323 322 322 322 323 323 322 323 331 344 351 352 349 349 347 343 341 339 339 340 342 343 343 343 342 340 339 339 338 336 336 338 343 345 341 340 339 339
318 322 323 324 325 325 326 327 324 323 323 323 323 323 323 324 323 321 321 323 340 350 353 352 350 347 345 341 339 339 340 342 343 344 343 343 343 342 341 340 337 336 336 342 341 339 340 340 339
318 320 322 323 324 324 325 325 323 322 322 323 323 323 323 326 322 320 320 321 331 349 351 353 353 350 344 341 339 339 339 340 340 342 344 344 344 344 343 341 338 336 338 341 339 339 339 339 339
318 319 321 322 323 324 325 324 322 322 321 322 322 322 322 322 321 319 319 321 324 346 349 348 351 350 347 346 341 339 339 339 339 339 340 341 343 344 344 342 340 339 340 340 339 339 339 340 339
319 320 321 322 323 324 323 322 322 321 321 322 321 322 321 321 320 320 320 322 323 328 350 348 347 349 349 349 348 340 338 338 338 338 339 340 342 347 345 344 342 343 341 340 340 339 339 340 340
319 320 320 321 322 322 321 321 321 320 320 321 321 321 322 321 321 321 320 320 320 323 345 350 347 346 346 347 350 346 343 341 340 341 342 340 342 345 346 346 345 343 344 341 341 340 340 340 340
319 319 320 320 320 319 319 319 319 319 321 320 320 319 319 318 320 321 319 319 319 320 324 347 348 347 345 345 347 349 348 346 345 344 344 345 343 344 346 343 346 343 343 343 342 340 340 340 340
321 320 320 320 319 319 318 317 317 317 318 318 318 318 318 318 318 318 318 318 318 319 320 321 328 341 346 345 346 346 346 347 346 347 345 344 346 345 344 345 343 344 342 343 341 342 342 341 339
318 318 318 318 317 317 317 318 317 317 317 317 317 318 318 318 318 318 318 317 319 320 321 321 323 323 324 342 342 343 344 345 346 346 346 347 346 344 343 343 341 344 340 341 340 340 341 341 339
319 318 318 318 318 318 318 318 318 319 318 318 318 318 317 317 317 317 317 319 320 321 322 324 324 324 325 324 329 341 342 342 343 345 345 344 345 345 344 343 343 339 343 339 339 340 341 340 340
317 318 321 320 320 320 319 320 319 319 319 319 318 318 319 318 317 317 319 320 320 321 322 323 324 325 325 326 325 325 331 341 342 342 344 345 342 341 343 343 341 342 339 341 341 339 341 340 339
319 322 322 322 322 321 321 322 320 319 319 319 318 318 318 317 317 319 321 320 320 321 321 321 321 322 323 324 325 325 324 327 339 342 341 343 343 340 342 343 343 339 340 340 342 341 341 341 339
320 320 322 323 323 323 322 323 320 320 319 318 318 317 318 317 317 321 320 320 320 321 320 320 320 320 321 321 322 324 324 322 326 337 342 341 342 341 339 343 343 341 339 339 342 341 340 340 339
319 319 320 320 320 322 323 320 320 319 319 318 317 317 317 318 321 320 320 320 319 319 319 318 317 317 317 319 320 321 322 324 324 326 336 340 341 341 341 342 342 341 341 339 341 339 339 338 337
318 320 320 320 319 319 320 321 319 318 318 318 317 316 317 318 320 320 319 318 318 317 316 315 315 314 314 316 317 318 318 319 321 324 326 334 337 339 340 341 342 340 339 338 339 337 336 336 334
316 317 318 319 318 317 318 321 320 319 317 317 317 317 318 321 321 319 318 317 316 315 314 314 313 312 312 313 314 315 316 317 321 321 321 324 336 336 338 341 341 340 335 331 337 336 335 334 335
317 316 317 317 318 322 317 325 319 317 317 316 317 318 321 321 319 317 317 315 314 313 312 312 311 310 310 310 310 310 312 313 315 317 322 324 334 336 337 338 340 338 335 336 333 335 334 333 333
316 315 316 318 319 317 318 319 317 316 318 318 319 321 321 319 318 316 315 313 312 311 311 310 308 307 306 307 306 305 305 308 311 314 318 322 325 336 336 338 338 338 336 331 335 335 334 332 331
314 315 316 316 317 320 317 316 319 319 318 317 320 321 319 318 316 314 312 311 310 309 308 306 305 304 304 304 302 301 302 303 306 309 313 317 324 328 335 335 338 337 336 335 334 327 332 332 332
313 315 319 320 321 319 315 317 319 318 321 319 323 321 318 316 314 312 311 309 308 307 306 304 303 303 303 302 300 299 300 301 303 306 309 313 319 327 329 332 337 338 336 333 332 330 332 332 332
313 315 317 321 322 318 316 323 321 323 322 321 320 318 315 313 312 310 309 308 307 306 304 303 301 301 300 299 298 297 298 300 303 306 309 312 317 324 328 328 333 335 335 333 333 332 332 331 331
317 317 314 316 316 322 321 318 318 322 321 320 319 316 312 311 309 309 308 307 305 304 303 301 299 298 298 297 296 296 298 300 302 304 308 314 318 322 331 334 334 334 334 333 332 328 328 322 322
315 315 320 318 320 322 318 320 325 322 320 317 315 311 309 307 307 307 306 305 304 302 301 300 298 296 296 295 295 295 296 298 300 303 307 317 323 329 332 334 333 333 333 332 330 328 328 331 333
313 314 318 319 316 321 319 325 319 317 316 314 311 309 308 307 305 305 305 304 302 300 299 298 297 294 293 293 294 294 294 295 298 300 303 307 320 329 332 333 333 332 332 332 332 331 331 331 331
311 312 316 322 322 320 320 320 316 313 313 310 309 308 307 305 304 303 303 302 300 299 298 297 295 294 291 291 292 293 292 293 296 297 299 302 307 326 330 332 332 332 331 330 330 331 330 329 328

GFSSGP_925_thetae_111.txt.gz
Theta_e
309 313 315 317 317 317 319 319 320 319 318 318 319 319 318 318 325 332 335 340 349 350 343 343 343 341 341 341 341 340 340 340 339 338 334 333 333 332 332 332 334 335 335 334 335 336 336 338 337
310 319 319 314 318 320 320 321 318 319 319 319 320 320 319 322 324 329 332 337 346 350 348 341 343 342 341 341 341 341 341 340 339 338 336 333 333 333 334 333 334 333 333 334 334 333 334 335 334
316 319 315 315 316 320 321 321 318 318 319 320 320 320 322 326 325 328 332 337 343 352 351 346 343 342 341 341 341 341 341 340 339 339 339 334 333 334 335 334 334 335 341 344 340 339 343 342 337
317 314 312 317 319 319 320 321 320 319 319 319 319 320 321 326 324 328 331 335 343 351 353 351 347 342 342 341 341 341 340 340 340 341 340 335 334 336 335 335 334 336 342 344 344 344 342 341 339
318 312 316 317 318 319 320 321 321 321 319 319 318 320 321 323 324 326 329 331 335 352 351 352 349 342 340 342 341 340 339 339 340 342 342 338 334 336 337 336 334 335 341 344 344 341 338 339 339
313 313 317 318 319 320 320 320 322 322 321 321 321 321 320 323 322 321 325 330 339 346 351 351 349 347 342 342 341 340 339 340 342 342 342 340 335 335 337 338 336 336 339 344 344 341 338 338 336
313 313 316 317 319 320 322 321 322 322 322 321 322 322 321 320 320 320 320 324 341 344 352 350 348 347 346 342 341 339 340 341 342 342 342 341 338 337 338 338 338 336 337 339 344 343 339 338 337
312 312 315 315 318 319 320 321 320 320 321 321 322 321 321 320 320 320 319 320 347 348 347 352 352 351 348 344 341 339 339 341 342 343 342 343 342 341 340 340 339 337 336 336 342 342 339 340 338
312 312 315 315 317 318 320 320 318 320 320 321 320 320 320 321 320 319 319 319 333 349 349 351 352 349 348 345 341 339 339 340 341 343 344 344 344 343 343 342 340 338 336 336 340 340 339 339 340
312 312 315 315 317 318 319 318 317 317 318 320 320 320 321 321 320 318 318 318 320 347 348 346 349 349 347 344 342 339 338 338 339 340 341 343 343 343 343 342 341 339 338 338 340 340 339 339 339
314 315 316 317 318 318 318 317 317 315 317 318 319 319 319 319 319 318 318 318 319 336 348 347 346 348 345 348 347 344 338 338 338 338 338 338 340 340 342 341 342 341 340 340 340 340 340 339 339
317 317 317 317 317 317 318 318 317 315 315 316 315 316 317 317 316 317 317 318 318 320 342 348 346 346 346 344 348 348 343 338 338 338 338 338 338 342 345 345 343 342 342 342 340 340 339 338 338
317 317 318 317 316 315 316 315 316 316 313 313 314 314 314 315 314 317 317 317 317 320 325 332 341 340 343 344 345 348 347 345 342 339 338 340 341 339 344 346 346 345 343 342 342 341 340 338 337
317 318 318 317 316 316 317 317 315 315 314 313 314 314 313 314 314 315 316 316 320 322 324 324 324 323 323 334 342 343 344 346 347 346 344 343 343 343 342 344 345 345 345 343 341 341 340 340 339
316 315 315 315 315 315 315 316 317 316 315 315 315 315 313 313 314 314 317 319 322 323 323 323 324 324 325 325 326 331 340 342 342 343 344 345 344 346 344 343 344 343 343 343 341 340 340 342 341
315 314 316 315 316 317 317 320 318 315 314 315 316 315 314 313 313 316 320 320 321 321 321 321 321 322 323 324 324 324 324 327 334 341 340 341 342 344 346 344 344 343 342 343 341 340 340 341 341
315 317 316 317 316 318 318 320 319 318 319 317 316 315 313 312 315 319 319 321 320 320 320 319 320 319 320 320 321 321 322 323 323 327 337 341 340 342 342 344 344 343 342 342 341 339 339 341 340
315 316 316 316 315 318 319 319 318 319 319 317 315 311 312 312 317 318 319 319 319 318 318 317 316 316 316 317 318 319 320 321 323 325 324 329 340 340 341 341 342 342 342 341 341 340 339 340 340
315 315 315 315 316 318 318 318 316 316 317 317 313 314 313 319 318 319 318 317 317 316 315 314 314 313 313 313 313 314 316 317 318 320 322 324 329 337 340 342 340 338 340 341 340 341 341 340 340
313 314 315 315 315 316 316 316 315 315 316 317 317 313 313 320 318 317 316 316 314 314 313 312 311 311 310 310 310 311 311 314 315 317 318 319 321 323 332 339 340 341 339 340 339 338 339 338 339
313 315 314 314 314 315 315 316 316 315 316 318 318 314 315 319 318 315 314 313 312 311 311 309 308 308 307 307 307 307 307 309 310 312 314 318 319 321 322 331 338 340 340 338 338 338 335 335 336
315 313 316 317 318 320 315 321 316 314 315 317 319 315 318 317 315 313 311 310 309 309 308 307 306 305 304 304 304 303 303 304 305 306 308 310 314 315 318 323 334 336 339 337 336 335 328 322 328
316 315 315 315 316 317 316 319 315 314 315 316 318 318 317 314 312 310 309 308 307 307 305 304 303 303 302 302 301 300 300 300 302 303 305 307 309 312 315 319 326 334 335 335 336 332 323 327 331
314 314 314 314 317 319 315 317 315 313 317 318 320 318 315 311 310 309 308 307 306 305 303 302 301 301 300 299 299 299 298 299 300 301 302 304 306 309 312 316 323 331 332 332 334 333 327 330 329
313 313 316 314 319 316 313 318 316 315 319 322 321 317 312 310 308 307 306 305 304 303 301 300 298 297 297 298 297 297 297 297 298 300 302 304 306 308 311 315 319 325 331 330 331 332 332 331 331
313 312 314 318 318 321 316 321 319 322 320 317 314 312 310 308 307 306 305 303 302 301 300 298 297 295 295 295 295 296 296 296 297 299 301 302 305 308 311 313 319 324 323 326 328 330 330 330 330
316 315 312 316 314 315 315 319 320 314 318 316 313 311 308 306 306 305 303 302 301 300 298 297 296 294 293 293 293 294 295 295 295 296 299 302 305 308 313 314 317 323 319 320 328 328 329 329 329
314 313 316 316 318 319 317 321 316 314 311 312 310 308 306 305 304 304 302 300 299 298 297 295 294 294 292 291 291 292 293 293 293 295 298 299 301 304 310 318 320 324 323 318 327 329 330 329 325
314 315 317 317 319 320 321 324 310 309 310 310 308 306 304 303 302 301 299 298 297 296 295 294 293 293 292 291 291 291 291 291 292 293 294 296 297 300 306 318 326 328 329 328 328 330 329 328 327
312 313 314 317 318 318 319 321 312 311 310 310 307 304 302 301 299 298 297 296 295 294 293 293 292 292 291 290 290 290 290 290 291 291 292 293 295 297 301 310 320 329 328 326 328 329 328 327 328

GFSSGP_925_thetae_114.txt.gz
Theta_e
309 312 318 316 316 313 317 317 318 316 318 318 318 318 317 319 325 328 336 341 348 347 341 342 342 342 342 343 342 340 339 339 338 335 333 333 332 332 331 331 335 336 335 334 336 338 340 338 339
311 316 318 311 315 317 317 317 319 317 317 317 319 319 320 325 328 330 332 344 347 348 344 341 342 341 341 341 341 340 339 339 338 335 333 333 333 333 331 331 333 334 332 331 332 333 334 336 336
316 318 313 313 313 317 318 318 318 317 317 319 319 319 322 324 325 329 338 344 347 349 346 343 342 341 341 340 340 341 340 339 339 337 334 333 334 333 333 332 332 331 331 331 332 333 334 335 335
317 311 309 315 317 316 318 318 319 317 317 318 317 320 322 324 325 332 338 342 349 350 350 345 342 342 341 340 340 340 340 339 339 338 336 333 334 334 334 333 332 332 334 340 338 337 342 341 338
316 308 314 315 316 316 317 318 318 319 317 318 318 319 321 324 331 332 329 328 335 347 351 348 345 343 341 340 340 341 340 339 339 339 339 335 333 335 335 335 334 334 335 339 342 343 342 340 338
310 309 315 316 316 316 317 317 318 319 320 319 319 319 318 321 329 331 328 330 331 341 349 351 349 345 342 341 340 340 340 339 339 339 341 339 334 335 336 336 335 334 336 340 343 343 339 337 338
311 310 313 315 316 316 319 317 318 318 319 320 321 320 319 319 320 320 324 335 337 339 343 349 349 347 341 340 341 340 339 338 339 340 341 341 335 334 336 337 336 335 335 340 343 343 339 337 337
309 309 314 313 315 315 316 318 317 316 317 320 320 320 320 319 319 320 319 326 342 344 346 347 348 347 346 344 341 340 339 338 339 341 341 341 337 335 335 337 338 336 336 338 341 343 341 338 337
310 310 311 313 315 315 316 317 317 315 315 315 317 319 320 320 319 318 318 321 347 348 348 349 349 349 349 348 343 340 339 339 341 341 342 342 341 339 337 338 339 338 336 337 338 341 341 339 339
310 309 312 312 314 315 315 316 315 316 316 317 316 317 319 319 317 316 316 317 338 350 350 350 350 350 348 347 345 341 340 339 340 342 343 343 343 342 341 341 340 340 338 336 336 339 340 339 339
311 313 313 314 315 315 316 317 316 316 316 315 316 316 315 316 316 315 316 318 318 321 346 348 347 349 347 345 343 341 340 340 340 340 342 343 343 343 343 343 342 341 340 338 337 339 340 339 338
315 314 315 316 316 314 315 313 315 314 315 314 314 312 314 314 315 315 315 317 317 318 335 347 346 347 347 346 346 343 340 339 339 339 339 340 341 342 342 342 342 341 341 339 338 339 340 339 338
316 316 316 316 316 315 315 315 315 315 314 312 311 312 312 312 312 314 317 316 323 334 342 347 346 345 346 346 347 347 347 342 338 337 337 337 338 338 340 340 340 340 340 340 339 339 340 340 339
315 316 314 313 313 313 315 315 314 315 313 314 314 313 312 312 311 313 314 315 322 323 325 324 325 325 329 336 338 342 344 344 342 340 338 338 337 337 338 340 344 344 342 341 340 340 340 340 339
315 315 314 314 313 314 314 315 315 315 313 315 315 315 313 311 312 311 313 320 323 323 322 322 322 322 323 323 323 325 329 333 340 343 344 342 339 340 340 339 343 345 344 344 343 342 341 341 340
314 313 315 313 314 314 314 317 317 315 314 314 312 314 315 312 311 313 319 321 320 319 319 319 320 320 320 320 320 321 321 322 324 326 330 339 342 343 342 343 341 341 345 344 344 343 342 341 341
313 314 315 315 314 314 316 317 315 315 315 315 314 314 316 314 313 316 318 318 318 318 317 316 317 316 316 317 318 318 319 319 320 321 323 323 325 336 341 341 340 340 341 343 343 343 342 340 340
314 314 312 313 312 314 314 316 316 314 313 314 313 314 315 312 316 317 316 315 314 314 314 314 313 312 313 313 314 314 315 316 316 317 319 320 321 324 335 340 339 338 339 340 341 341 341 340 339
314 314 314 313 311 313 313 314 314 313 313 312 313 314 315 318 316 315 313 312 312 311 311 311 311 310 310 309 309 310 310 311 313 314 315 316 317 319 321 322 337 340 339 339 338 338 339 339 339
315 315 314 312 312 313 311 314 313 313 313 312 312 314 319 318 316 313 311 309 308 308 308 307 307 307 306 305 305 305 306 309 310 311 313 314 314 315 317 319 322 331 339 339 338 337 336 337 337
313 314 313 312 314 312 312 314 313 312 312 312 313 312 318 318 315 311 309 307 306 305 304 304 304 304 303 303 302 302 304 304 306 308 310 313 313 313 313 314 315 320 330 338 339 337 336 334 334
314 314 315 316 315 316 314 318 313 311 311 312 312 316 317 314 311 309 307 305 303 303 302 302 301 301 301 300 300 299 299 299 300 301 302 305 309 311 311 311 313 315 318 326 336 337 336 335 328
315 314 314 315 315 314 314 315 312 311 312 312 318 316 313 311 309 307 305 303 302 301 300 299 298 298 298 298 298 298 298 297 298 299 300 302 303 305 309 310 311 313 316 318 332 336 335 334 326
313 313 313 313 314 312 312 314 312 311 316 318 318 314 311 309 307 305 303 302 301 299 299 297 296 295 295 296 296 296 296 296 297 298 300 301 302 304 306 308 309 312 315 318 327 334 333 331 327
312 312 317 310 315 314 313 314 313 320 317 319 314 310 308 307 305 303 302 300 299 298 296 296 295 294 293 293 294 295 295 295 296 297 298 299 300 302 304 306 308 311 313 317 323 331 331 329 326
312 312 314 315 316 315 313 314 318 312 307 309 310 308 307 305 303 302 300 299 298 296 295 294 294 294 292 292 292 293 294 294 294 294 295 297 299 301 302 304 306 308 312 314 319 328 330 329 327
313 312 311 315 313 311 311 315 314 308 306 305 303 304 304 303 301 300 299 297 296 296 294 293 293 293 292 291 291 292 292 292 293 293 294 295 296 298 299 301 303 307 313 315 318 326 328 329 327
313 311 315 313 315 318 315 316 313 312 308 306 303 301 299 300 299 298 297 295 294 294 294 293 292 292 291 291 290 291 291 291 291 292 292 293 294 295 297 299 301 305 312 317 318 321 326 327 325
314 315 316 314 314 317 318 316 311 310 309 306 303 301 301 299 297 296 295 294 293 293 293 292 291 290 290 290 290 290 290 290 290 290 290 290 291 293 294 296 299 304 309 321 321 320 324 327 326
313 314 316 313 313 314 313 318 311 310 310 306 304 301 299 296 295 294 293 292 292 292 292 291 289 289 289 289 289 289 289 289 289 289 288 288 289 290 291 293 295 299 305 318 326 324 323 326 326

GFSSGP_925_thetae_117.txt.gz
Theta_e
310 313 319 314 315 312 317 317 316 315 315 317 315 317 317 319 323 321 335 342 347 343 339 342 341 341 342 343 342 339 338 336 333 333 333 334 334 336 336 337 337 336 338 339 336 339 340 341 341
315 318 316 309 314 316 315 316 320 317 316 314 316 318 321 328 329 332 334 345 347 344 340 342 342 342 342 343 342 340 338 338 335 333 333 333 333 332 332 334 336 336 336 337 340 341 340 339 340
317 317 312 311 311 316 317 317 317 318 316 316 316 318 322 324 327 330 337 344 347 345 343 341 342 342 342 342 341 339 339 338 336 333 333 333 333 332 331 333 334 334 333 333 335 336 336 338 337
317 311 308 315 317 315 316 317 316 316 316 315 316 320 321 322 326 331 340 345 346 347 345 343 342 341 340 341 340 339 339 339 337 335 333 333 333 333 332 332 333 332 331 330 331 331 332 334 334
314 308 314 315 315 315 316 317 316 317 317 316 317 318 322 325 327 337 339 343 346 348 348 345 342 341 341 340 340 340 340 339 338 336 334 333 333 334 334 333 332 332 331 335 335 334 338 339 338
310 308 314 316 315 315 316 316 317 317 316 315 316 318 319 321 334 334 334 336 343 344 349 347 345 343 342 341 340 340 340 340 339 337 337 334 333 334 335 334 333 333 334 338 339 340 340 338 337
310 310 313 314 315 315 318 316 316 315 316 316 315 320 318 318 327 330 330 333 337 342 345 349 349 347 344 341 340 340 340 340 339 338 339 337 334 334 335 336 335 335 336 338 341 342 339 337 336
307 308 313 312 314 314 315 315 316 315 316 315 317 318 319 317 319 318 325 332 337 339 342 344 348 347 345 342 341 341 340 340 338 338 339 340 337 334 335 336 336 335 336 338 341 342 341 337 337
307 309 311 313 314 314 314 314 315 315 315 315 315 316 317 319 318 316 319 339 342 345 345 345 347 347 346 344 341 341 340 340 339 339 340 341 340 336 335 336 337 337 336 336 339 342 343 340 337
309 308 310 310 313 313 314 313 314 315 315 316 314 314 316 316 319 315 314 321 344 346 346 346 347 347 347 346 345 343 341 341 341 342 342 343 342 339 337 336 337 338 338 337 339 341 342 342 339
309 311 310 313 313 314 314 316 313 315 315 315 315 313 313 315 316 315 315 315 335 336 343 345 347 348 348 347 345 345 342 341 342 343 343 343 343 342 341 339 339 339 339 339 339 341 341 343 339
314 312 314 314 314 314 315 314 314 313 314 313 312 312 311 310 311 313 314 316 315 339 331 345 349 349 348 346 345 343 342 341 341 342 347 348 348 346 344 342 342 341 341 340 339 339 340 342 340
315 315 315 313 312 312 313 313 314 313 313 311 310 310 310 310 310 313 314 315 315 319 338 346 347 347 347 346 346 346 343 341 340 339 339 342 346 347 348 346 344 342 342 341 340 339 338 340 341
314 314 312 312 312 312 314 314 313 313 312 312 312 312 311 310 310 311 311 313 327 334 338 333 334 337 338 335 334 337 340 342 342 340 339 339 340 340 340 341 343 341 341 341 341 340 338 338 340
313 314 313 313 312 313 311 312 312 311 311 313 313 313 313 313 312 309 312 316 322 323 323 324 323 325 327 325 324 325 326 327 330 333 333 339 339 339 340 339 340 339 339 341 341 340 340 339 340
313 312 314 312 313 312 313 315 314 313 313 313 312 312 312 313 312 312 311 321 320 319 319 318 319 320 320 320 320 319 319 320 321 323 325 325 326 330 339 340 341 340 339 338 339 340 341 340 340
312 314 313 313 312 312 313 314 314 312 313 313 311 311 310 312 312 315 316 317 316 314 314 314 315 315 316 316 316 316 316 316 316 316 317 318 320 321 324 330 339 341 340 339 337 339 342 340 340
313 313 312 313 311 310 312 313 312 310 312 312 311 310 309 312 315 313 312 311 311 310 310 310 310 310 311 311 311 312 313 312 312 312 313 314 314 315 317 319 322 332 338 337 334 337 336 334 338
313 313 313 311 310 312 312 311 311 310 310 310 311 310 310 315 312 311 310 308 307 306 306 306 306 306 308 309 309 308 308 310 311 312 311 312 313 314 314 315 316 319 329 337 337 336 334 334 336
313 314 314 313 312 310 310 312 312 311 310 310 310 309 315 314 311 309 306 304 303 303 302 302 302 302 302 303 304 306 307 306 308 309 310 309 310 311 312 313 314 314 316 325 334 337 336 336 336
313 314 314 313 313 312 312 313 311 310 309 309 309 309 315 314 311 308 304 302 301 300 300 299 300 299 300 300 302 305 306 306 305 306 307 307 308 308 308 309 311 312 313 315 320 332 335 335 335
314 311 313 315 313 313 312 315 312 309 312 315 315 312 311 309 307 305 302 301 300 298 297 296 297 297 298 299 299 298 298 298 298 299 300 303 304 306 306 307 307 309 311 313 315 318 329 334 331
313 313 314 314 313 313 313 313 310 312 316 317 314 310 308 307 305 303 302 299 298 297 296 295 295 296 296 296 296 296 297 297 297 298 298 299 301 303 306 306 306 308 310 312 314 316 319 332 333
312 313 311 311 311 310 311 311 309 314 311 312 314 310 307 305 303 302 300 298 296 295 295 295 294 293 294 294 294 295 295 295 296 296 297 297 298 299 301 303 304 306 308 310 313 315 320 327 330
311 315 321 315 313 314 312 312 314 310 307 309 308 305 303 301 300 299 299 297 296 294 293 294 293 292 292 292 292 293 294 294 294 295 295 295 297 298 299 300 301 303 305 308 310 312 315 323 328
311 313 316 316 314 313 311 310 315 309 306 304 303 302 300 298 297 297 296 295 295 294 293 292 292 292 291 291 291 292 292 292 293 293 293 294 295 295 296 297 298 300 302 305 308 312 314 317 325
312 312 310 315 313 311 310 313 311 308 306 304 303 301 299 297 296 294 293 293 293 293 292 291 291 291 291 290 291 291 291 291 291 291 292 292 292 293 294 294 296 298 300 304 308 313 315 317 323
311 310 313 312 315 316 313 315 310 309 308 306 304 301 299 298 296 295 293 292 292 292 292 290 290 290 290 290 290 290 290 290 290 289 289 289 289 290 291 293 294 296 299 301 303 308 316 317 323
313 313 313 311 310 314 316 310 305 310 309 306 304 301 298 296 294 293 292 291 291 291 290 289 289 289 289 289 289 289 289 289 289 288 287 287 288 288 289 290 292 293 295 297 299 304 315 318 319
313 314 313 309 311 314 306 308 310 309 309 305 304 300 297 295 293 292 291 291 291 290 289 288 288 288 288 289 289 289 289 288 288 287 287 286 286 287 287 288 289 290 291 293 294 297 306 318 321

GFSSGP_925_thetae_120.txt.gz
Theta_e
315 317 319 313 314 311 316 317 314 316 317 315 313 315 316 319 330 325 335 339 344 339 341 341 339 340 341 341 337 334 334 335 335 335 336 337 337 337 338 339 338 336 338 345 344 344 344 342 341
316 318 315 308 314 316 314 314 318 317 317 314 314 316 321 328 329 332 335 342 346 341 339 341 340 341 341 342 339 337 334 334 334 334 335 336 336 336 336 336 336 335 336 340 344 343 342 340 340
317 316 311 310 312 316 316 316 316 315 315 315 316 317 321 325 327 332 333 344 345 343 339 341 340 341 342 342 341 339 337 334 334 334 334 335 335 335 333 334 335 335 336 337 340 343 341 337 337
316 310 307 314 317 315 316 315 315 315 314 313 312 318 321 321 326 330 339 344 345 344 342 341 341 341 342 342 342 339 338 337 334 333 333 334 334 334 333 333 334 333 332 334 337 338 337 337 336
312 307 312 314 315 315 314 315 315 316 315 315 313 316 319 322 328 331 341 345 345 345 344 342 342 342 341 341 341 339 338 338 336 333 333 333 333 333 333 333 333 333 332 331 332 333 333 333 333
309 307 313 316 315 315 313 314 315 315 315 314 315 315 317 319 334 339 339 341 343 345 346 344 342 341 341 340 340 339 339 339 338 336 333 333 333 333 333 334 334 333 331 331 332 333 333 336 336
310 310 314 314 314 315 316 314 315 314 314 315 314 319 316 317 324 332 332 333 336 340 344 346 345 343 342 341 340 340 340 340 339 338 336 333 333 333 334 334 334 333 332 335 337 336 339 339 338
306 308 312 311 314 315 314 314 314 314 314 314 315 315 315 316 318 318 323 337 342 344 343 344 346 346 345 343 341 340 340 340 340 339 338 337 334 334 335 335 335 334 333 336 338 340 340 339 336
306 308 311 314 313 314 313 313 313 313 313 313 314 315 315 316 318 318 317 323 337 341 342 345 346 346 345 344 342 341 341 340 340 340 339 339 338 336 337 337 337 336 335 336 338 340 341 339 337
308 308 310 310 311 313 312 313 313 314 313 315 314 313 315 315 315 315 314 314 319 338 339 343 345 346 345 345 343 341 341 341 341 340 340 341 342 340 337 337 338 338 337 337 338 340 342 342 339
308 310 309 311 311 313 313 314 314 315 315 315 314 313 312 312 311 311 314 315 315 317 336 343 345 346 346 345 346 345 344 342 342 342 342 343 347 348 342 339 338 339 339 338 338 340 342 342 342
313 311 312 313 313 312 313 313 314 313 315 313 311 310 309 309 309 310 310 312 313 315 321 341 345 346 346 346 346 344 344 343 342 343 345 344 341 341 341 343 341 339 339 339 339 339 340 340 341
315 314 313 312 311 311 311 312 313 312 311 310 310 310 310 310 310 313 314 314 313 313 315 335 344 346 347 346 345 344 344 342 341 342 342 344 341 341 340 341 341 342 344 340 340 339 339 340 339
313 313 311 311 312 311 312 312 313 312 310 312 312 312 311 310 311 312 312 312 312 315 319 330 341 345 346 343 344 343 342 343 341 340 339 340 340 338 337 339 340 340 340 344 341 340 340 340 341
312 313 311 312 311 312 310 310 311 310 309 309 309 310 310 310 311 310 312 309 318 323 323 329 334 337 338 336 335 333 335 336 336 336 334 337 339 339 338 339 339 340 340 341 338 341 341 340 341
313 311 313 310 310 311 311 311 311 310 310 310 309 310 310 309 310 314 315 316 316 317 316 316 316 318 321 321 321 322 322 323 323 323 325 327 327 329 333 334 336 339 339 340 338 338 339 339 338
310 311 313 311 309 310 310 312 312 310 310 309 310 308 307 307 311 309 309 308 310 311 311 310 311 311 312 315 316 316 315 316 315 315 316 316 317 318 320 325 328 329 333 339 339 338 338 338 338
311 313 311 311 309 308 310 312 310 308 307 309 309 307 306 312 309 307 305 306 305 305 306 306 306 307 308 309 311 312 311 311 311 312 312 312 312 313 314 314 316 318 322 332 334 337 337 335 337
311 310 311 309 309 311 312 311 309 308 308 307 307 306 308 310 307 303 302 301 302 302 302 301 302 303 304 306 307 308 309 309 310 310 310 310 311 311 311 312 313 313 314 317 328 335 334 332 332
312 313 313 311 311 311 309 310 310 309 309 311 311 311 312 309 305 303 300 299 297 297 297 297 298 298 300 300 301 303 305 305 306 306 306 307 308 309 310 310 310 311 312 313 316 326 335 333 332
312 313 313 313 311 310 310 311 309 310 313 313 309 308 307 305 303 302 300 299 298 296 296 295 295 296 296 298 300 303 302 302 301 303 304 304 305 305 306 307 308 309 310 311 313 315 320 333 334
315 312 312 312 313 312 311 314 312 312 311 314 309 307 306 304 303 301 299 297 295 296 296 295 294 296 293 294 295 297 297 298 298 298 299 300 301 303 303 305 306 306 307 309 311 313 314 319 330
312 311 312 312 312 312 313 312 309 310 311 313 309 306 303 302 301 299 299 297 295 294 294 294 294 293 293 293 293 294 295 296 296 296 296 297 298 299 300 302 303 305 306 308 309 311 312 315 319
311 312 311 310 309 314 312 312 308 311 310 309 305 303 301 300 299 298 296 296 295 294 293 293 292 292 293 292 292 292 293 294 295 295 295 295 296 297 298 299 300 301 303 305 307 310 312 313 315
312 314 316 313 313 315 310 310 311 309 308 307 304 303 300 299 298 297 296 294 294 293 292 292 291 291 291 291 291 292 292 292 293 293 293 294 294 294 295 295 297 298 299 302 303 305 308 311 313
310 313 318 318 313 311 310 311 313 308 305 304 302 301 300 297 296 295 294 293 293 293 292 291 290 290 291 291 291 291 291 291 291 291 291 291 291 291 292 293 294 296 297 299 301 304 307 310 313
313 316 312 316 313 314 310 311 309 308 306 305 304 302 301 298 296 294 294 293 292 292 291 289 289 290 290 290 290 290 290 290 289 289 289 289 289 290 290 291 292 294 295 296 299 301 304 308 312
311 309 314 314 317 316 311 311 309 309 307 304 303 302 300 298 296 294 293 292 291 291 289 289 289 289 289 289 290 289 289 289 288 288 287 287 288 288 288 289 290 291 292 293 294 296 298 301 307
312 312 312 312 313 313 314 310 302 308 306 303 302 301 298 296 294 292 291 291 291 289 289 288 288 288 288 289 289 289 288 288 288 288 287 287 287 287 287 288 289 290 290 291 291 293 295 297 303
313 313 313 315 312 311 305 307 308 308 306 305 304 300 297 295 292 291 290 290 290 288 288 288 288 288 288 288 287 287 287 287 287 286 285 285 285 286 286 287 288 288 288 289 289 291 292 295 299

GFSSGP_925_thetae_123.txt.gz
Theta_e
315 318 318 315 321 320 320 320 317 321 320 318 317 316 322 324 335 332 334 338 344 343 339 340 339 340 340 336 334 336 336 338 338 338 339 336 336 337 337 336 335 340 345 342 339 341 341 340 339
316 317 314 316 322 322 320 318 320 319 318 317 316 320 322 327 331 335 338 342 345 339 339 341 340 339 340 339 335 335 336 337 338 337 337 337 337 337 337 337 336 337 345 344 338 340 340 340 339
316 315 318 319 319 322 321 319 319 318 317 317 317 318 323 328 330 334 332 344 344 339 341 341 340 339 340 341 338 335 334 336 337 338 337 337 337 337 336 336 336 335 338 340 336 337 340 340 339
315 315 314 321 321 319 319 319 318 318 318 318 316 319 321 322 325 327 339 345 344 342 340 341 340 340 340 341 341 338 336 334 335 336 337 338 337 337 336 334 334 334 334 337 338 341 339 336 335
312 314 320 320 319 317 317 317 317 318 317 318 317 320 321 320 334 341 344 344 344 343 342 340 341 340 341 341 342 340 338 337 334 334 335 337 338 337 335 334 334 333 334 336 339 343 339 335 334
317 314 321 322 319 317 317 316 317 317 317 318 318 319 320 318 327 335 339 343 343 344 344 343 341 341 341 341 342 341 339 338 336 334 334 335 336 336 335 335 335 334 333 334 338 339 336 333 332
317 319 321 318 318 318 317 316 317 317 317 318 317 319 319 318 317 322 328 332 338 343 345 344 343 341 341 341 341 341 340 339 338 337 334 333 334 334 335 335 336 335 333 333 334 335 333 332 334
313 316 317 317 319 320 315 316 315 317 317 316 316 318 318 317 316 317 316 321 330 336 342 345 345 343 342 341 341 341 340 340 339 339 337 335 334 334 335 336 337 337 335 333 334 335 334 337 338
309 318 321 319 316 318 314 317 316 315 316 316 316 317 317 316 315 315 315 316 318 330 336 342 344 344 343 343 342 341 341 341 341 341 340 338 338 340 340 338 338 338 336 336 339 338 339 340 339
314 317 318 313 313 314 316 316 317 317 319 317 317 317 315 314 313 314 315 315 315 315 320 333 342 344 345 344 344 342 341 341 341 341 341 341 340 339 341 341 338 338 338 338 341 341 342 342 342
310 316 312 313 313 315 316 316 315 317 318 317 317 316 314 313 315 315 315 314 314 315 316 318 332 342 345 345 344 343 342 341 341 342 342 342 342 342 342 341 340 341 341 342 342 342 342 343 343
314 312 312 315 314 314 316 315 316 315 316 315 314 313 314 315 315 314 314 314 314 314 315 315 318 342 344 345 344 344 344 344 343 343 344 342 342 341 340 341 343 341 340 342 342 342 341 342 342
316 315 315 314 313 314 313 315 314 315 314 313 313 313 313 314 314 313 313 313 313 312 314 317 331 340 344 345 345 345 344 343 342 343 343 342 340 340 340 339 340 341 340 340 341 341 341 343 342
314 314 314 313 314 313 313 313 313 312 312 311 311 312 312 313 312 313 316 315 317 320 321 324 332 339 343 343 343 343 342 342 340 342 340 342 340 338 338 339 338 339 340 340 340 341 341 342 341
313 315 314 312 312 312 312 311 313 312 311 312 312 312 312 312 314 313 313 312 312 313 313 316 322 330 334 335 339 339 340 339 339 339 338 338 338 339 338 338 337 338 338 337 337 337 340 342 341
314 313 312 311 312 311 312 312 312 312 312 313 312 312 312 312 311 309 308 307 307 307 307 308 310 315 317 319 322 323 326 328 329 330 330 330 330 331 330 331 333 336 338 339 338 338 336 337 338
313 311 313 313 311 312 312 313 313 313 312 312 312 311 310 312 308 305 304 304 303 303 303 303 304 306 309 312 312 314 314 315 315 315 316 317 319 320 321 323 325 327 329 333 338 339 338 339 339
310 314 313 313 312 312 314 314 313 312 310 311 313 313 312 309 305 302 301 300 300 299 299 299 300 301 304 306 307 308 308 309 309 308 310 311 312 313 313 314 316 317 318 323 329 332 335 338 338
311 312 313 313 312 313 314 313 312 311 315 313 314 313 311 307 303 302 300 299 299 298 298 297 297 298 299 300 302 305 305 306 304 304 305 307 308 310 311 311 312 313 314 316 318 325 331 335 337
314 315 316 314 313 313 314 314 313 315 314 310 309 308 307 305 303 300 298 297 298 298 297 297 296 296 297 298 299 300 301 303 303 301 302 302 303 305 306 308 308 308 310 313 315 317 322 332 333
314 316 316 316 314 312 313 313 315 313 313 309 308 307 305 303 302 300 298 297 296 296 295 295 295 294 294 296 298 299 299 300 301 300 301 301 301 302 303 305 307 307 307 309 312 314 318 323 331
317 314 315 315 314 317 313 317 314 313 313 310 307 304 302 301 300 299 298 297 296 295 295 295 294 293 294 294 295 297 296 296 297 298 298 299 299 300 301 302 303 303 305 307 308 310 312 316 321
314 311 313 313 315 315 315 317 314 310 312 309 306 304 302 301 300 299 299 298 297 295 295 293 294 293 293 293 294 294 294 294 295 296 297 297 298 298 298 298 299 300 301 303 306 308 310 311 314
311 313 313 313 314 317 315 316 314 311 310 308 305 304 302 301 300 298 297 296 296 294 293 294 293 292 292 293 292 292 292 293 293 293 294 294 295 295 295 295 296 297 298 299 301 303 306 310 312
313 316 316 318 316 317 311 315 315 310 309 309 306 304 302 300 299 297 296 295 294 294 292 292 292 292 291 292 292 291 292 292 292 291 291 292 292 293 293 293 294 295 296 297 299 300 303 305 308
314 314 315 317 316 314 311 316 314 309 306 306 304 304 302 299 297 296 295 294 293 292 291 291 291 291 291 291 291 291 291 291 290 290 290 290 290 291 291 291 292 292 294 295 296 298 301 304 306
314 317 314 317 314 317 315 312 309 308 306 306 305 304 301 298 297 295 294 293 292 291 291 290 290 290 290 290 291 290 290 290 290 289 289 289 289 290 290 290 291 291 292 292 294 295 298 299 301
314 312 318 319 319 317 314 313 316 311 308 307 306 305 301 298 295 294 293 292 292 290 290 289 289 290 289 289 289 289 289 289 288 288 287 287 288 288 288 289 290 290 291 291 291 293 294 296 298
314 315 314 314 316 317 314 315 311 311 309 307 305 303 300 298 295 293 292 291 291 290 289 289 289 289 289 288 288 288 287 287 287 286 286 286 286 286 287 288 289 289 289 289 290 291 294 294 297
313 315 315 318 317 314 313 315 310 310 309 306 304 302 299 296 294 292 291 290 290 289 289 289 288 288 288 288 287 287 287 287 286 286 285 285 285 285 285 286 287 287 288 288 289 291 291 292 293

GFSSGP_925_thetae_129.txt.gz
Theta_e
320 322 322 324 328 327 328 327 327 326 326 325 324 326 327 335 339 346 346 349 350 349 351 342 340 337 336 338 339 340 340 339 341 337 335 333 333 333 332 335 336 337 346 340 338 339 341 340 339
318 321 323 326 327 329 328 327 327 326 325 324 323 325 327 335 339 341 346 347 350 350 352 348 339 338 336 337 338 338 339 340 341 340 337 334 334 333 333 333 335 338 343 342 339 339 341 340 338
319 321 325 328 328 328 329 327 326 325 324 324 324 327 331 333 336 338 346 345 347 348 348 351 339 340 336 335 336 335 336 339 339 341 339 335 335 334 334 334 336 337 337 336 334 339 340 338 338
321 325 325 326 328 328 328 327 325 325 325 325 323 326 330 335 339 342 343 342 343 347 350 351 342 340 340 335 335 335 335 336 339 340 340 337 335 335 335 336 338 338 338 337 337 340 341 340 339
322 326 327 328 328 327 326 325 325 325 325 325 324 326 328 326 331 335 340 341 343 346 349 351 341 340 341 340 336 335 336 337 338 340 339 339 337 336 336 337 338 339 342 345 341 340 341 341 340
326 327 329 328 329 326 325 325 324 325 324 324 325 326 326 324 324 326 328 335 339 345 349 352 348 341 341 341 341 338 336 336 337 339 340 340 340 337 338 338 338 339 340 343 345 341 340 340 340
326 329 329 328 328 327 326 325 325 325 325 325 323 326 325 325 322 323 324 324 330 339 347 352 354 353 344 341 342 342 341 338 336 335 337 338 340 341 340 340 340 339 340 340 342 342 340 339 340
324 327 328 325 327 329 325 324 324 325 325 324 323 325 326 323 322 323 323 323 324 324 329 341 348 352 353 353 344 341 342 342 341 338 336 336 337 340 341 342 342 340 340 338 337 339 339 340 340
322 326 326 325 323 326 323 324 324 324 325 324 324 323 322 321 322 323 324 324 323 323 324 325 330 340 347 351 351 350 343 342 342 340 340 338 340 342 344 344 344 342 339 339 338 338 339 340 340
323 325 326 325 323 323 323 323 323 323 323 323 324 323 320 320 321 322 322 322 322 322 322 322 324 326 340 343 345 351 350 348 347 346 346 346 345 345 344 343 342 340 342 340 339 336 336 337 340
323 324 323 322 321 322 321 321 321 320 320 320 320 320 319 318 319 320 320 321 322 322 323 327 330 335 332 339 341 343 344 346 347 347 347 347 348 347 345 345 344 344 342 343 341 341 340 340 341
321 320 319 318 320 320 319 320 320 319 318 318 318 318 318 318 319 319 320 320 320 322 323 324 325 329 337 341 341 341 341 341 342 344 348 348 347 347 347 345 343 343 344 343 342 342 342 342 343
318 317 319 319 319 319 319 319 318 318 317 317 317 317 317 318 319 319 319 319 319 319 320 319 319 321 326 331 336 344 346 345 344 345 344 344 345 344 344 345 344 344 342 341 342 342 342 342 342
321 320 320 319 318 317 317 317 316 316 317 317 318 317 319 319 318 318 317 318 317 316 316 315 315 317 321 322 328 333 338 342 343 343 342 343 343 343 344 344 343 343 343 343 342 341 342 342 343
319 318 317 318 318 317 316 316 316 318 318 317 317 317 318 317 315 315 314 314 314 313 313 312 312 312 315 319 318 320 326 327 330 331 331 332 333 335 337 340 340 340 341 341 341 341 341 342 342
317 318 318 318 317 317 315 316 318 317 317 317 317 318 319 316 314 313 313 313 312 311 310 309 310 310 312 312 316 315 317 315 317 317 320 322 322 323 326 329 330 332 334 335 337 339 339 339 340
319 318 319 318 317 316 316 315 317 316 316 316 317 319 318 315 313 312 311 312 311 311 310 308 307 307 310 311 312 313 313 313 313 313 314 315 317 318 320 322 325 325 326 329 331 332 334 338 339
318 319 317 317 317 316 316 317 316 316 317 318 320 320 317 315 312 310 310 310 310 309 308 306 306 305 306 309 311 311 311 312 311 311 312 313 314 315 317 319 321 321 322 324 326 330 332 333 333
317 317 315 316 316 316 317 317 316 317 318 319 320 319 317 315 312 310 309 308 308 307 307 306 305 305 304 304 306 310 309 309 309 310 311 311 311 311 312 312 313 314 315 317 319 321 324 326 330
318 316 316 316 316 316 317 316 316 318 319 319 319 317 316 315 313 311 309 309 308 307 306 306 305 305 305 305 305 305 307 309 307 306 308 308 308 307 306 306 307 308 309 311 313 314 316 319 323
316 316 316 317 316 316 316 317 318 319 319 317 316 315 313 313 312 311 309 308 307 306 305 305 305 304 304 304 305 306 307 307 306 306 305 305 305 304 303 303 304 305 306 307 308 309 311 314 316
316 316 316 315 315 316 318 320 318 321 320 318 317 316 314 312 310 310 307 305 304 304 303 302 303 302 302 302 303 303 305 306 306 305 304 304 303 303 301 301 301 302 303 304 305 306 306 308 311
316 315 315 315 316 317 317 318 318 318 321 320 318 316 313 311 309 307 304 303 303 303 303 302 302 302 300 299 299 300 300 300 301 302 302 302 302 301 300 299 299 299 300 301 301 302 303 305 306
315 315 315 316 317 319 317 317 317 318 319 318 317 315 313 309 307 305 303 303 303 302 301 302 301 301 300 299 298 297 297 297 297 296 297 298 298 298 297 296 297 297 298 298 299 300 301 303 304
316 317 319 320 322 322 318 317 316 318 317 316 317 315 313 309 307 306 305 304 302 301 300 299 299 299 298 297 297 296 296 296 296 295 294 293 295 294 294 294 295 295 295 296 297 298 299 301 302
316 317 317 316 317 316 317 318 318 318 317 316 315 315 312 308 306 305 304 303 301 300 298 297 298 297 296 296 295 294 294 294 294 293 292 292 292 292 292 291 293 292 293 294 295 296 297 298 298
316 318 315 316 316 317 316 316 319 318 317 316 315 314 311 307 306 304 303 301 300 299 296 295 295 296 294 294 294 293 292 292 292 292 291 291 291 291 291 291 291 292 292 293 293 294 295 294 296
315 315 318 318 317 317 315 316 319 320 319 316 316 314 310 307 305 304 303 301 299 296 295 294 294 293 293 293 292 292 292 292 291 291 290 290 290 290 290 290 290 291 291 291 292 292 292 292 291
315 317 316 316 317 317 317 319 319 322 319 317 316 315 309 306 306 304 303 300 298 297 295 293 293 293 292 292 292 292 291 291 291 290 289 289 289 289 289 289 290 290 290 291 290 290 290 290 290
313 316 315 323 318 321 321 323 317 317 317 316 315 314 310 307 306 305 302 300 298 296 294 293 293 292 292 292 292 292 291 291 291 290 289 289 289 288 288 289 289 289 289 289 290 290 289 289 289

GFSSGP_925_thetae_132.txt.gz
Theta_e
317 321 324 324 326 328 329 328 327 327 326 325 324 326 336 341 348 356 348 350 349 350 346 340 339 337 337 338 339 339 340 338 337 336 334 333 333 333 333 333 334 335 335 337 336 340 341 341 341
318 320 323 325 329 328 329 327 327 326 325 324 324 327 335 338 340 347 346 348 350 353 351 347 339 337 337 338 339 339 340 339 339 338 336 333 333 333 333 333 333 333 336 337 338 339 341 340 339
320 321 324 327 328 328 329 328 327 325 324 324 324 329 334 336 341 345 342 344 346 348 350 350 339 338 336 337 338 339 339 339 340 340 338 335 333 334 333 334 334 335 339 341 341 338 341 340 338
323 324 325 325 326 328 328 327 326 325 325 325 326 332 331 338 341 343 342 343 344 350 352 349 340 340 337 336 336 336 337 338 339 340 340 337 334 334 334 334 335 336 337 339 338 338 340 338 338
324 325 327 328 328 328 327 326 325 326 326 325 324 329 327 326 329 333 337 340 344 348 354 349 341 340 340 337 335 336 336 337 339 341 341 340 337 335 335 335 336 338 339 339 337 338 340 340 339
325 326 328 329 328 327 326 325 325 325 325 325 325 327 326 324 324 326 328 336 343 347 352 354 352 344 340 340 340 337 336 335 336 338 340 340 340 338 337 336 337 338 340 342 343 342 342 342 341
324 328 330 328 329 328 327 326 325 325 325 325 324 326 326 324 323 324 324 325 326 331 341 349 352 352 352 342 340 341 340 337 336 336 337 339 339 340 339 338 338 338 338 340 343 344 343 343 341
322 325 327 328 324 328 326 325 325 325 325 325 324 326 325 323 323 324 324 325 324 325 324 326 334 340 350 354 353 344 341 342 341 338 336 336 337 339 341 341 340 339 339 339 340 341 342 342 341
322 323 326 326 325 327 324 324 325 325 325 325 325 324 322 322 323 324 324 324 323 323 325 329 331 331 333 344 349 350 350 344 342 342 340 338 337 338 340 340 341 341 340 339 338 338 338 338 341
321 323 325 324 324 324 323 323 323 322 325 324 324 323 321 321 321 322 322 323 324 324 327 327 327 331 337 339 344 345 350 348 345 343 344 345 343 341 343 344 343 341 339 340 339 338 338 338 340
322 322 323 323 321 322 321 322 320 320 320 320 321 321 320 319 321 321 322 322 322 323 323 322 322 323 329 336 341 344 347 347 348 348 345 347 349 348 347 345 344 343 342 341 341 339 339 338 337
322 321 321 320 320 319 319 319 320 320 319 319 319 319 318 319 321 321 320 320 320 320 319 317 319 319 323 326 333 338 341 344 347 346 342 343 344 345 345 345 345 342 342 342 342 343 340 339 339
320 319 319 319 319 319 319 319 319 319 318 318 317 317 319 320 319 319 319 318 318 317 316 315 315 316 321 323 327 331 334 337 338 339 341 342 343 343 343 343 343 342 340 341 341 341 342 343 342
319 321 320 320 320 320 318 318 318 317 318 317 317 318 320 319 317 317 316 316 315 314 314 313 313 313 316 319 320 323 325 329 332 332 333 335 336 337 340 338 342 341 341 341 340 339 339 341 342
319 320 320 318 318 317 318 317 316 317 317 318 317 319 319 317 316 315 315 315 314 313 312 311 311 311 312 315 317 317 320 320 320 321 325 326 327 328 329 332 333 333 335 337 338 337 338 338 338
319 318 318 318 318 317 315 316 318 318 318 317 317 318 319 316 315 314 314 314 313 313 311 310 309 308 311 313 314 315 314 316 315 316 316 316 318 318 322 323 325 326 327 328 330 331 332 332 333
318 317 318 319 318 318 317 317 318 318 318 317 317 318 319 316 314 313 313 312 312 311 309 308 308 307 307 310 313 313 313 313 312 312 314 313 314 315 317 319 320 321 322 324 326 327 329 331 332
317 319 319 318 319 317 316 316 317 317 317 317 318 320 319 316 313 312 311 310 310 309 309 308 307 307 307 307 308 311 312 311 310 311 310 310 311 311 312 314 314 315 316 316 318 318 320 322 325
317 318 318 318 318 318 317 317 318 318 317 319 320 320 319 316 313 312 311 310 310 309 308 307 307 306 307 307 307 308 309 310 308 307 308 308 308 307 306 307 308 308 309 311 312 312 313 315 318
318 318 319 317 316 317 317 317 317 317 317 318 320 320 318 316 314 312 311 310 309 307 307 307 306 305 305 305 306 308 308 309 308 307 306 305 305 305 304 303 304 304 306 307 307 308 309 311 313
318 319 318 317 317 317 317 318 317 317 318 320 319 318 316 315 314 312 310 308 306 306 305 305 304 304 303 303 304 305 307 307 307 307 306 305 304 303 302 301 302 302 303 303 304 305 305 307 308
318 317 316 316 317 317 316 319 318 320 320 320 318 317 315 314 311 311 308 306 306 305 304 304 304 303 302 301 301 302 302 303 302 303 302 303 303 301 300 299 299 300 300 301 301 302 302 303 305
317 317 316 316 317 316 316 316 316 317 322 320 318 317 316 314 311 309 306 306 305 304 304 304 303 302 301 300 299 299 299 299 299 298 298 298 298 298 296 296 297 297 298 298 298 299 300 301 303
315 317 316 316 316 320 316 317 317 317 321 321 319 318 315 312 309 307 306 306 304 303 302 301 302 300 299 298 298 297 297 297 297 296 296 294 295 294 294 293 294 295 295 296 296 297 298 299 301
316 317 319 319 319 320 317 319 319 319 321 321 320 318 315 311 308 307 307 305 303 302 300 300 300 299 297 296 296 295 295 295 295 294 293 293 293 292 292 292 292 292 293 294 294 295 297 297 297
317 318 318 318 321 319 317 320 318 319 318 320 318 317 314 311 309 308 306 305 302 301 298 298 298 298 296 295 295 294 293 293 293 292 292 292 291 291 291 291 291 292 292 292 293 294 294 294 295
317 317 317 318 319 320 317 317 319 319 319 318 318 317 314 310 308 307 305 303 302 299 297 296 296 296 295 294 294 293 293 292 292 291 291 291 290 290 290 290 291 291 291 291 292 292 291 291 291
315 316 320 321 319 319 316 316 319 321 320 318 318 317 314 310 308 306 305 303 300 298 296 295 295 294 294 293 293 293 292 292 291 291 290 290 289 289 290 290 290 289 289 291 290 291 290 290 289
314 315 317 318 318 316 317 322 322 323 320 318 318 317 314 310 307 306 305 302 300 298 296 295 294 294 293 293 292 292 292 292 291 290 290 290 289 289 289 290 289 288 288 289 291 290 289 289 289
313 314 316 321 320 321 322 322 321 321 319 317 316 316 314 309 307 306 305 302 299 298 296 294 294 294 293 293 293 293 293 292 291 290 290 289 289 289 289 289 288 287 286 287 289 290 290 289 289

GFSSGP_925_thetae_135.txt.gz
Theta_e
323 319 319 323 320 319 322 324 322 322 322 320 323 338 343 350 354 357 349 349 348 342 340 339 337 336 338 339 339 339 338 336 336 335 333 331 331 330 330 332 336 337 336 336 335 338 340 339 339
320 321 321 318 322 324 321 322 321 321 323 321 326 334 342 349 345 344 348 352 353 352 340 339 338 337 337 339 339 339 339 338 336 337 335 332 332 332 331 332 333 335 335 336 336 338 340 340 339
320 320 317 319 321 321 323 322 321 322 322 322 329 332 337 345 342 342 347 350 349 347 347 344 338 337 336 337 339 339 339 339 338 339 337 335 332 332 333 333 334 334 336 337 338 338 338 339 339
320 318 316 319 320 321 323 322 322 322 322 327 327 327 328 334 336 341 345 352 352 350 346 343 339 338 336 336 336 336 337 337 338 339 340 338 335 333 333 334 334 334 337 343 341 339 337 339 338
321 317 320 322 322 325 321 322 323 323 324 326 325 325 323 325 331 337 341 346 352 352 352 343 339 339 339 336 335 335 335 335 336 337 339 340 338 335 334 334 334 334 335 337 340 338 337 338 338
317 317 321 322 324 323 322 321 323 324 323 323 324 324 323 323 325 337 341 342 345 351 352 351 351 348 340 339 339 337 336 335 336 337 339 340 340 338 335 335 335 335 337 337 340 340 340 340 340
318 318 322 322 325 324 324 322 323 323 323 323 323 324 322 322 323 328 326 326 327 329 333 343 347 348 351 352 343 340 340 338 336 336 338 340 340 340 339 337 336 336 336 337 338 341 342 341 341
315 316 320 320 324 325 324 323 322 323 323 324 323 323 322 322 324 325 326 325 329 329 327 327 329 334 337 341 352 351 345 341 341 339 337 336 337 338 340 341 339 338 338 337 337 338 341 342 341
317 316 318 321 321 323 323 322 323 323 323 323 321 321 321 322 322 322 322 322 324 324 323 325 325 328 333 339 346 349 349 348 345 342 341 340 338 336 336 337 337 339 339 339 338 338 338 339 340
315 315 320 321 319 321 321 321 320 320 324 323 320 320 320 320 320 320 320 320 319 319 319 319 319 319 326 331 336 341 345 348 347 343 341 341 340 340 338 339 341 343 341 338 339 339 338 338 340
317 316 318 320 320 317 318 319 318 318 319 319 320 318 318 319 319 319 318 318 317 316 317 315 315 317 321 323 327 333 336 340 344 347 345 344 346 347 345 346 346 345 344 343 342 341 340 339 339
319 318 319 318 318 318 317 317 318 317 316 316 315 315 318 319 318 318 316 316 315 315 314 313 314 317 320 321 322 327 331 333 336 339 341 343 342 344 345 344 344 343 343 342 341 341 342 341 338
318 319 318 318 317 318 317 316 317 316 314 314 315 319 318 317 316 315 315 315 314 313 312 312 312 314 316 319 318 321 322 325 329 333 335 337 338 339 340 340 340 339 341 340 340 340 340 340 340
316 318 318 318 317 317 317 316 315 315 313 314 318 317 316 315 314 314 314 314 313 312 311 310 310 312 313 317 317 315 317 318 319 321 325 327 328 331 333 333 333 334 334 335 336 337 337 338 338
318 317 316 317 317 317 315 315 315 314 313 314 318 316 314 314 313 313 313 313 312 311 310 309 308 310 312 314 314 314 313 313 313 315 316 317 319 322 327 327 325 324 324 328 329 329 331 332 332
318 317 316 314 315 314 313 314 313 312 314 314 316 316 314 313 312 313 312 311 310 309 308 308 307 307 310 311 313 312 312 312 312 311 312 313 315 317 319 319 319 321 322 323 325 324 325 326 326
315 314 313 314 314 314 313 315 314 314 316 314 317 314 313 312 311 311 311 310 309 308 307 307 307 307 307 308 310 311 311 310 310 309 309 309 309 311 313 313 312 315 317 318 316 318 317 319 320
316 316 313 313 315 314 313 314 315 315 315 315 315 315 313 311 310 310 310 310 309 308 307 306 306 306 306 307 308 308 310 308 307 306 306 306 306 306 306 306 307 308 309 309 310 310 311 312 313
316 315 314 315 315 314 314 312 313 314 313 313 316 315 312 311 310 310 310 309 308 307 306 305 304 304 304 305 306 307 308 308 307 306 305 304 304 303 302 303 303 303 305 305 306 306 307 309 310
315 317 316 315 316 315 313 312 312 314 314 314 315 315 313 311 310 309 308 307 306 305 305 304 304 303 302 303 304 304 306 305 305 304 304 303 302 301 301 300 301 301 302 303 302 303 304 306 307
316 316 316 317 315 314 315 314 314 315 315 316 316 315 313 312 310 309 306 306 306 305 304 304 303 301 301 300 301 303 304 303 302 301 301 300 299 299 298 298 298 299 299 300 300 301 301 303 304
315 316 317 317 315 314 314 314 313 314 314 317 316 313 311 310 308 306 305 305 305 304 304 303 302 300 299 299 299 298 299 298 298 297 297 297 297 296 296 295 296 296 297 297 297 298 299 300 302
316 317 316 316 315 316 316 313 312 315 319 318 315 313 311 309 306 304 304 305 304 303 303 302 300 299 298 297 297 296 296 296 296 295 294 294 294 293 293 292 293 294 295 295 295 296 297 298 300
315 316 316 315 314 315 315 313 313 312 315 318 316 314 311 307 305 305 305 304 303 302 301 301 299 297 297 296 295 295 295 295 294 293 293 292 292 292 291 292 292 292 293 293 294 295 296 297 298
314 315 316 315 315 316 314 315 314 313 317 318 317 314 310 307 305 304 304 303 301 300 300 299 298 296 295 295 294 294 294 293 293 292 292 291 291 291 290 291 291 292 292 292 293 294 294 294 295
315 316 318 320 318 316 315 317 317 317 318 318 316 313 310 306 306 304 303 302 299 298 298 297 296 295 294 294 293 293 292 292 292 291 291 291 290 290 290 291 290 290 291 291 292 291 292 291 292
316 316 314 317 316 315 315 316 318 318 318 317 315 312 309 307 306 304 303 301 298 297 296 296 295 294 294 293 293 292 292 291 291 290 290 289 289 290 290 289 289 289 290 291 291 290 290 290 290
315 315 318 318 320 318 316 315 315 318 317 317 315 311 308 306 305 303 302 299 297 296 295 295 294 294 293 293 293 292 292 291 290 290 290 289 289 289 290 288 287 288 289 290 291 290 289 289 289
314 315 316 317 317 317 315 314 320 318 317 317 315 312 308 306 304 303 302 298 297 296 295 294 294 293 293 293 292 292 292 291 290 290 289 289 289 289 288 285 285 286 287 288 289 289 288 288 288
313 314 315 319 318 314 314 314 320 318 317 316 315 312 308 306 305 303 301 298 297 295 294 294 294 293 293 293 293 292 291 290 290 289 288 288 288 287 285 284 283 284 286 287 287 287 286 286 286

GFSSGP_925_thetae_138.txt.gz
Theta_e
322 320 320 320 319 317 321 323 320 321 324 337 344 349 350 349 352 357 347 345 342 340 339 337 336 338 338 338 338 337 336 333 335 333 331 330 329 330 333 337 339 338 335 335 336 337 339 337 338
322 320 319 314 319 321 319 321 320 320 325 334 340 345 347 349 345 349 349 344 341 340 339 337 336 336 338 339 338 338 338 334 336 335 333 331 331 331 331 333 335 336 335 335 335 337 339 339 339
320 319 316 316 316 320 320 320 320 321 321 328 331 332 341 345 344 346 351 348 344 342 343 338 337 336 337 338 338 339 338 337 337 338 336 333 331 331 331 331 333 334 334 335 336 336 337 338 338
320 316 313 317 320 319 321 320 320 324 327 328 326 327 327 335 340 351 350 349 348 345 343 338 338 337 336 336 336 337 338 337 338 339 339 336 334 331 332 332 332 332 334 341 338 339 337 338 338
318 312 317 320 321 320 321 321 321 323 324 324 325 323 323 329 347 350 351 351 351 346 341 341 340 339 338 336 335 335 336 336 337 338 339 339 337 334 332 332 332 332 332 334 340 338 337 336 338
315 313 318 321 321 321 320 320 322 324 323 323 323 322 321 329 342 342 350 351 350 349 346 346 345 344 342 341 339 337 336 336 336 337 339 339 340 338 336 334 334 334 334 334 335 335 335 335 337
315 314 318 321 320 323 323 321 322 322 322 322 323 322 321 322 324 327 329 329 329 330 331 331 333 339 344 344 343 341 340 339 338 336 336 337 339 339 338 337 336 335 335 336 337 337 338 339 339
311 313 318 319 321 323 323 322 321 321 322 322 320 322 320 319 322 325 324 323 322 322 322 321 322 328 336 341 347 346 343 342 341 339 339 337 336 337 338 339 339 338 337 336 336 337 338 340 341
313 313 315 320 320 322 321 322 321 321 321 320 320 320 319 320 320 321 320 320 320 319 318 317 317 318 326 332 339 345 345 346 344 342 341 339 338 337 337 336 337 338 338 338 338 338 337 337 337
312 312 316 318 318 318 318 320 320 319 320 320 319 319 319 320 319 318 317 316 315 314 314 314 315 317 319 322 330 337 340 342 343 346 344 342 341 340 338 338 338 340 342 342 341 340 340 339 339
314 314 314 319 318 316 315 318 316 315 319 320 318 319 318 318 317 316 315 314 313 313 312 313 315 317 319 319 323 330 332 333 338 340 342 343 344 343 344 344 345 345 345 344 344 343 343 341 340
319 316 316 318 317 316 316 315 317 315 316 316 317 318 316 316 315 314 313 313 312 312 311 312 313 315 318 318 319 323 328 330 333 334 335 339 341 341 341 340 340 340 341 342 342 341 340 341 340
316 317 316 316 315 315 316 315 316 314 313 316 317 317 315 314 313 313 312 312 312 311 311 310 312 313 315 316 315 318 318 321 325 328 330 332 332 332 331 332 334 334 333 333 333 334 336 337 336
315 316 317 315 315 316 316 316 315 313 311 316 316 315 314 313 312 312 312 311 311 310 309 308 309 311 314 313 313 313 313 314 316 318 320 323 325 325 324 325 328 331 331 328 328 329 330 331 332
316 316 315 316 317 316 314 315 314 313 313 316 315 314 312 312 311 311 311 310 310 308 308 307 307 308 311 313 312 312 312 312 311 312 314 315 317 318 319 320 321 321 324 326 326 327 327 327 326
315 316 316 315 314 314 313 314 312 311 314 315 314 313 312 311 309 309 309 308 308 307 307 307 307 307 308 310 311 310 309 309 309 309 309 309 310 311 314 314 315 315 316 318 321 321 321 320 319
313 315 314 314 313 314 312 314 312 310 314 316 314 312 311 310 308 309 309 308 307 307 306 306 306 306 307 308 308 309 307 306 306 305 305 305 305 305 306 307 307 309 309 310 311 314 313 310 312
314 315 314 313 312 312 311 312 313 311 314 316 313 311 311 310 308 308 308 307 307 306 305 305 304 305 306 307 307 308 306 305 305 303 303 303 303 302 302 303 303 304 305 305 305 305 307 308 309
314 313 313 311 313 312 313 313 312 313 312 315 313 312 311 309 308 307 307 307 306 305 305 304 304 303 304 305 306 306 306 304 303 302 302 301 301 300 300 300 300 301 302 301 302 302 303 305 305
313 314 314 313 314 312 311 311 311 311 312 315 314 312 310 309 308 306 305 306 306 305 304 303 302 301 301 302 302 302 303 301 299 299 298 298 299 298 298 298 298 298 299 299 299 300 301 303 304
314 314 314 315 315 313 310 311 312 312 312 313 314 311 310 309 308 305 304 304 305 304 304 302 301 300 299 300 301 301 301 299 298 297 296 295 296 295 295 295 296 296 296 296 297 298 299 300 302
314 314 315 316 315 314 311 314 311 311 313 316 315 312 310 309 307 305 303 303 304 303 303 301 300 299 298 298 297 297 296 296 294 294 294 294 293 293 292 293 293 294 294 294 295 296 297 298 300
315 314 315 315 314 314 313 312 311 311 313 317 314 313 311 308 305 304 303 303 303 303 301 300 299 298 297 296 296 295 295 294 293 293 293 292 292 292 292 292 293 292 293 293 294 295 296 297 298
315 315 314 312 312 315 313 313 314 310 314 317 314 311 310 306 304 303 302 303 302 302 300 299 298 297 296 295 294 294 293 293 292 292 292 291 291 291 291 291 292 292 292 292 293 294 294 294 296
313 315 318 315 314 316 314 314 315 311 312 316 315 312 308 305 304 303 301 300 300 300 298 297 298 295 295 294 293 293 293 292 291 291 291 290 290 290 290 290 290 291 291 291 291 292 292 292 293
313 315 317 318 317 315 313 315 314 315 312 316 315 312 307 305 304 303 301 299 299 298 298 296 296 294 294 293 293 292 292 291 291 291 290 290 290 290 289 288 290 290 291 290 290 290 290 290 290
314 314 314 317 318 315 313 312 316 318 317 316 314 310 307 305 304 303 300 298 298 297 296 295 295 294 294 293 292 292 292 291 290 290 290 290 290 290 288 287 289 290 291 291 290 290 290 289 288
313 313 317 317 317 317 314 314 317 318 317 316 313 310 307 305 304 302 298 296 296 296 295 295 294 293 293 293 292 292 291 290 290 290 289 289 289 289 286 285 288 288 289 289 289 288 287 288 285
313 315 316 316 316 316 317 315 312 317 317 315 313 309 306 305 303 300 297 296 296 295 295 294 294 293 293 293 292 292 291 290 289 289 289 288 287 286 285 283 286 286 287 287 286 286 285 285 283
311 314 316 318 316 315 315 315 316 315 316 315 313 309 306 304 302 300 297 295 294 294 294 294 293 293 293 293 292 291 290 289 288 288 287 287 285 284 283 282 284 285 285 285 284 283 282 282 282

GFSSGP_925_thetae_144.txt.gz
Theta_e
318 319 319 316 318 315 320 320 317 325 347 343 339 344 348 347 350 349 346 343 343 341 339 339 339 339 338 335 333 331 332 331 330 328 327 330 334 336 336 335 336 337 335 333 332 334 334 333 336
319 319 316 311 318 319 318 317 318 322 344 342 338 342 345 352 348 347 344 343 341 340 339 340 339 339 338 337 335 333 333 333 332 331 329 328 330 332 335 337 338 337 334 334 336 336 337 335 336
319 318 313 313 313 318 318 318 329 341 341 330 333 330 342 345 347 348 342 343 341 340 340 339 340 340 340 339 338 337 334 335 334 333 331 331 331 332 333 335 336 335 335 334 334 335 337 337 338
318 313 310 316 320 319 318 318 325 335 329 327 329 335 335 344 347 346 345 343 341 341 340 339 338 338 339 339 339 340 339 336 337 336 335 333 332 332 332 333 334 334 334 334 335 335 335 336 337
315 310 315 318 319 317 317 318 324 329 326 326 327 339 337 335 339 344 342 341 340 339 339 339 338 337 337 336 337 338 339 340 340 340 339 337 335 333 333 333 334 334 334 334 336 336 336 336 335
313 310 316 319 319 319 317 316 320 323 322 327 342 324 326 327 336 332 337 334 333 335 339 341 340 340 339 338 337 336 337 338 339 340 341 342 342 340 337 335 334 335 335 335 339 341 338 337 335
313 313 317 318 318 318 320 317 321 322 321 324 322 322 324 325 320 324 324 323 323 324 330 335 338 340 344 344 340 339 338 337 337 338 339 341 342 342 341 340 339 338 337 337 336 337 337 337 336
309 311 316 315 318 319 319 320 319 320 320 319 319 332 331 323 318 317 318 318 318 319 319 320 325 332 336 341 342 342 342 341 340 339 339 338 339 340 341 342 342 342 341 340 339 339 338 338 338
308 311 313 316 317 318 319 321 318 317 319 317 319 319 321 320 317 316 315 315 315 315 316 316 317 318 323 332 338 341 341 341 342 341 341 341 340 339 339 339 339 339 340 340 340 340 340 340 340
310 311 314 313 316 318 317 319 318 319 319 320 321 320 320 317 316 315 313 312 312 313 314 315 315 316 317 321 330 336 337 337 337 336 338 339 340 342 341 340 340 340 341 341 342 343 343 343 342
310 312 312 315 316 314 315 315 314 317 319 320 323 320 317 316 314 312 311 310 310 311 313 314 315 316 317 319 324 328 331 332 333 333 334 336 337 337 338 338 337 337 338 338 338 339 338 340 339
317 314 313 314 315 315 316 313 317 315 318 318 320 318 315 314 313 311 310 309 309 310 312 314 315 315 316 317 319 322 324 325 327 326 328 331 332 332 332 334 333 333 333 332 334 333 333 334 335
314 314 313 312 312 313 313 314 314 313 316 316 316 315 314 312 311 310 309 309 308 310 311 313 314 314 314 315 315 316 317 318 318 319 320 323 324 325 325 326 326 327 326 328 328 327 328 329 330
312 312 312 312 313 313 314 314 313 314 314 315 315 314 312 311 310 309 308 307 307 308 309 312 313 312 313 313 313 313 313 313 313 313 312 314 316 318 319 319 319 321 318 319 321 322 322 323 324
313 313 312 313 315 315 312 314 313 313 314 315 314 312 310 310 310 308 308 307 307 307 308 310 312 311 311 310 310 310 309 309 309 307 307 308 308 309 311 311 312 312 312 312 314 316 317 318 319
312 313 314 313 314 315 313 314 312 313 315 314 312 311 310 309 309 309 308 307 307 307 307 308 309 311 309 308 307 307 306 306 305 304 304 303 303 304 304 304 305 305 306 306 308 308 309 308 310
310 313 313 313 312 313 312 314 312 314 316 314 312 311 309 308 306 307 307 307 307 306 306 307 307 309 308 306 306 305 305 304 303 303 303 302 302 302 302 302 301 302 302 302 302 302 302 304 305
311 311 311 312 312 310 310 309 310 314 315 315 312 309 309 308 306 306 306 306 306 305 305 306 306 306 307 306 305 305 304 303 302 302 301 301 301 301 301 301 301 301 301 301 301 301 301 302 302
311 310 311 311 311 311 309 308 308 309 314 313 310 310 309 307 306 305 306 305 304 304 304 304 305 305 306 305 305 304 301 300 300 300 299 299 298 298 299 298 299 299 299 298 298 298 299 300 300
311 312 311 310 310 312 310 310 309 307 313 314 313 311 310 307 306 305 304 303 303 303 303 303 303 304 305 306 304 302 300 297 297 296 296 295 296 296 296 296 295 295 295 296 296 296 297 298 299
311 312 311 311 310 310 310 310 309 307 311 312 313 312 310 309 307 305 303 302 302 302 301 301 301 302 303 304 303 301 299 296 295 294 294 293 293 293 293 293 294 294 294 294 295 296 296 297 299
311 310 311 310 311 310 308 310 307 308 310 313 313 312 310 309 307 305 303 301 301 301 300 299 299 299 300 301 301 301 299 295 293 293 292 292 293 293 292 293 293 293 293 294 294 294 294 295 297
312 310 310 310 310 311 310 311 310 310 308 312 313 312 310 309 307 305 303 302 301 300 299 298 297 297 297 298 299 298 295 293 293 292 292 292 292 292 292 292 293 293 293 293 293 293 293 293 294
310 311 312 309 310 312 311 310 311 309 312 310 312 312 311 309 306 304 303 301 300 299 298 297 296 295 296 296 295 295 294 293 292 292 291 291 290 290 291 292 292 292 291 291 291 291 291 291 291
309 311 312 314 313 316 311 311 312 310 311 309 311 312 311 308 305 303 301 299 297 297 296 296 295 294 294 294 293 293 293 292 291 291 290 290 289 289 290 291 291 291 290 290 290 290 289 288 288
313 313 316 317 317 315 311 314 313 311 310 310 310 312 309 307 305 303 301 298 296 295 296 295 294 293 293 293 292 292 292 291 291 290 290 290 289 287 289 290 290 290 290 289 288 288 287 286 286
314 315 314 316 315 319 313 309 310 315 315 313 312 310 309 306 304 302 300 297 296 295 295 295 294 293 293 292 292 291 291 290 290 289 289 289 288 287 288 289 289 288 288 287 287 286 285 285 284
313 312 317 318 323 323 319 316 314 313 314 313 312 310 308 305 303 301 299 296 296 295 295 295 294 293 293 292 292 291 291 289 289 289 288 288 287 286 286 287 287 287 286 286 285 285 283 282 283
311 314 315 317 320 324 324 318 312 313 312 312 312 310 307 305 303 301 298 296 295 295 295 294 294 293 292 292 291 290 290 289 289 288 287 287 286 284 285 286 286 286 284 283 283 282 281 280 280
309 310 312 317 319 319 320 320 312 313 310 311 311 307 304 303 302 300 297 295 294 293 293 294 293 293 292 292 291 289 289 289 288 287 286 285 284 282 284 285 285 284 283 281 280 280 279 279 279

GFSSGP_925_thetae_147.txt.gz
Theta_e
319 319 319 318 324 324 325 324 319 333 342 341 341 346 350 351 351 354 347 347 346 345 343 341 341 340 335 331 330 331 330 329 328 332 338 340 340 339 338 337 336 337 337 336 334 335 335 335 336
319 319 317 319 325 326 326 321 323 332 347 345 343 347 352 356 350 348 346 345 343 342 341 340 339 339 338 334 332 332 332 331 329 330 332 335 336 336 336 336 337 337 335 334 336 337 337 336 337
318 318 321 322 321 326 326 321 322 344 339 336 340 338 346 349 350 345 345 342 340 340 340 339 339 339 338 337 336 334 334 334 333 331 330 331 332 335 337 338 339 337 335 336 335 335 337 338 338
317 318 317 324 323 323 321 323 342 344 330 332 338 346 347 337 346 344 341 340 339 339 339 338 338 339 339 339 339 339 336 336 336 335 334 334 333 334 335 336 336 335 335 336 337 336 336 336 337
315 317 323 323 322 321 320 321 345 339 330 339 338 349 342 333 328 335 340 339 338 338 338 337 337 337 338 339 339 339 339 339 339 340 339 337 336 335 335 335 335 335 335 335 336 336 336 337 336
320 317 323 322 322 321 321 322 339 328 329 332 347 344 336 326 328 328 334 336 337 338 339 339 339 338 337 336 336 337 337 338 339 339 340 341 343 339 337 336 336 336 336 336 340 341 339 338 337
320 321 323 321 323 321 321 319 336 327 332 337 336 340 333 325 320 322 327 328 332 336 337 338 340 342 341 339 338 337 337 336 337 338 339 341 341 342 343 342 340 338 337 337 337 337 337 337 337
315 319 320 320 322 324 320 322 325 328 329 323 325 341 344 328 317 318 319 320 321 324 327 331 335 338 341 343 342 341 340 340 340 339 338 338 339 341 343 344 344 343 341 340 339 339 338 338 338
310 318 319 319 319 321 319 323 320 319 324 321 322 331 330 322 316 315 316 316 316 317 318 318 320 325 332 337 339 341 340 340 340 340 339 340 342 340 339 339 339 339 340 340 341 341 341 341 340
315 317 318 316 317 319 319 321 322 323 323 324 324 324 323 319 316 317 317 316 314 314 315 316 316 317 319 325 333 335 335 335 335 335 336 337 338 338 337 339 339 340 340 341 341 341 341 341 342
312 317 314 316 316 316 316 317 317 322 324 325 326 327 322 319 317 317 315 314 313 313 314 314 315 315 316 319 324 329 331 331 331 331 333 334 335 336 336 336 335 335 335 335 335 336 337 337 337
317 316 314 316 315 316 316 316 319 322 323 320 325 327 323 321 318 316 314 311 311 312 313 314 314 314 315 317 319 322 325 326 326 327 328 330 331 331 331 331 330 331 331 330 330 330 332 332 332
315 316 315 315 314 314 314 316 318 318 319 322 324 323 322 320 316 313 312 310 310 311 312 313 314 314 315 316 317 318 319 320 319 320 321 324 324 325 324 324 324 324 323 324 325 325 326 326 327
314 314 315 314 315 314 316 315 315 316 319 322 322 322 320 318 315 311 310 309 309 309 312 313 313 313 314 314 314 313 313 312 313 313 313 315 316 317 317 316 317 317 317 317 318 320 320 321 322
313 315 315 315 315 316 314 315 316 316 319 321 322 321 318 316 312 312 310 309 309 309 311 311 311 311 311 311 310 310 308 308 307 306 306 307 308 308 309 309 310 310 310 312 313 314 315 315 315
314 314 316 315 315 316 316 319 317 317 319 321 321 319 317 315 313 310 309 308 308 307 308 310 310 310 309 308 308 306 306 305 304 304 303 303 303 303 303 303 303 303 303 304 304 305 306 307 307
312 314 315 315 314 316 316 319 317 317 319 321 320 319 317 315 312 310 308 307 307 306 307 309 310 308 307 307 306 305 304 303 302 302 302 302 303 303 303 302 302 302 302 302 303 303 304 306 306
314 314 313 314 314 313 316 316 315 316 319 320 320 319 317 315 313 309 307 306 305 305 306 307 308 307 306 306 305 304 303 302 301 299 299 300 300 300 300 300 300 300 300 300 301 302 303 304 304
311 311 312 313 313 313 314 315 315 314 317 319 318 317 317 316 312 308 306 305 304 304 304 305 306 306 306 304 303 302 300 298 298 296 296 297 297 297 297 297 297 297 298 298 299 300 301 303 303
312 313 313 312 312 312 313 313 313 313 314 317 318 317 316 315 310 308 306 304 304 303 303 303 304 305 305 304 304 301 298 296 296 295 295 295 296 296 296 296 296 296 297 298 298 299 300 300 301
312 312 312 312 311 311 312 312 312 311 313 314 317 317 316 315 312 309 306 304 304 303 302 302 302 304 305 305 304 301 298 296 295 294 294 294 294 295 295 295 295 295 296 296 297 297 297 299 300
313 311 312 312 311 312 310 315 314 310 310 311 315 316 316 315 311 309 307 304 303 302 301 300 301 302 303 304 302 300 300 297 294 293 293 293 294 294 294 294 294 294 295 295 295 296 296 297 297
314 311 312 312 312 312 312 312 317 312 311 311 313 315 316 315 312 310 307 305 303 301 299 298 298 299 301 301 301 300 297 295 293 293 292 292 292 293 293 293 293 293 294 294 294 294 294 295 295
311 312 312 311 313 315 314 314 318 318 313 313 313 314 314 313 311 309 306 304 302 299 297 297 297 296 297 299 299 298 295 294 293 293 292 291 290 291 292 291 292 292 293 293 292 292 291 292 292
311 312 317 317 316 318 314 313 317 316 314 314 314 313 314 313 311 309 306 304 300 297 296 296 295 295 295 295 295 295 294 293 293 292 292 291 290 290 290 291 291 292 291 291 290 290 289 289 289
313 313 318 324 322 320 313 315 316 313 314 313 312 313 314 313 311 309 306 304 300 298 296 295 295 294 294 293 293 293 293 292 292 292 291 290 288 289 289 289 290 289 289 289 289 287 287 287 287
314 315 314 318 319 321 319 318 317 315 315 315 315 313 314 312 310 308 306 303 300 297 296 295 294 294 293 293 292 292 292 291 291 290 290 288 287 287 288 288 288 288 287 287 287 286 285 286 286
314 314 318 320 324 324 322 319 320 318 317 316 316 316 313 311 309 307 305 302 299 297 296 295 294 294 293 292 292 292 291 290 290 289 287 286 286 286 287 287 287 286 285 285 285 284 283 283 284
312 313 315 316 321 322 319 319 317 317 316 315 315 314 314 310 308 306 303 300 299 297 295 294 294 293 293 292 292 291 290 289 288 287 286 285 285 285 286 286 285 283 283 283 283 282 282 282 282
312 312 312 316 320 323 321 319 316 316 316 315 315 313 311 309 307 305 302 300 298 296 295 294 294 293 293 292 291 290 289 288 287 286 285 284 284 284 285 285 283 282 281 281 281 281 281 281 281

GFSSGP_925_thetae_150.txt.gz
Theta_e
324 320 322 324 328 326 326 327 329 334 341 340 338 343 342 349 344 353 349 349 349 350 348 346 340 334 330 330 330 329 329 331 338 341 340 338 339 338 336 338 338 339 338 336 335 334 334 335 334
322 320 322 325 326 325 326 327 330 337 342 343 345 349 349 357 352 350 349 347 347 348 348 347 340 337 333 331 331 331 330 330 333 339 341 341 340 339 338 338 338 338 336 336 335 337 335 336 336
320 319 325 326 326 325 326 327 331 340 345 346 344 347 352 358 350 348 347 345 345 345 345 342 339 338 336 334 332 333 332 331 330 331 335 337 338 338 338 337 338 338 336 336 338 342 338 337 337
321 324 324 325 324 326 327 327 328 343 340 342 344 351 349 342 346 347 345 342 342 342 343 342 341 339 338 337 336 334 335 334 333 332 333 335 336 338 339 340 340 338 337 338 338 337 337 337 338
322 324 325 324 324 326 326 327 331 339 337 342 345 350 352 335 334 343 342 340 340 340 340 339 339 340 339 339 339 338 335 336 337 335 334 334 334 335 337 338 338 338 338 338 337 337 336 336 335
324 325 324 323 323 325 327 327 337 337 338 342 344 348 349 331 333 337 337 337 338 337 338 339 337 337 338 338 338 339 338 339 339 339 340 339 338 337 336 336 336 337 337 338 338 340 340 338 336
324 324 323 323 322 325 326 327 339 336 338 340 342 346 343 331 334 334 333 333 333 334 336 338 340 338 337 336 336 336 337 338 338 339 340 341 343 344 341 339 338 337 337 337 337 339 340 340 339
322 323 323 323 322 323 325 327 336 335 335 339 341 343 348 337 329 330 330 331 330 330 332 334 337 340 342 337 338 338 338 338 338 338 338 339 340 342 343 342 342 341 340 339 338 338 338 338 338
319 321 321 322 322 323 324 325 326 334 332 336 335 336 340 333 327 330 329 329 327 326 326 328 331 335 338 338 339 339 340 340 339 339 338 340 340 341 342 341 341 341 341 341 341 341 340 340 339
320 321 320 322 322 323 324 325 326 329 333 334 333 332 335 330 327 333 333 331 328 325 323 324 325 328 330 332 335 336 335 334 334 335 337 336 338 338 339 338 338 339 339 340 341 341 340 340 342
319 319 320 320 320 321 321 322 325 327 332 334 335 336 334 332 330 333 335 331 327 323 320 321 322 324 325 326 328 329 330 330 328 329 332 335 336 337 336 336 333 331 335 335 337 338 339 340 341
318 318 319 319 320 320 321 321 324 326 328 329 331 334 335 335 334 335 332 325 321 321 320 319 320 321 322 322 322 323 324 324 324 323 326 328 330 332 331 330 329 329 329 330 331 329 331 334 333
318 317 318 319 319 319 320 321 322 324 326 324 327 332 335 336 336 333 328 322 320 319 319 319 319 320 320 320 320 319 319 318 318 318 318 322 324 322 321 321 322 324 324 323 324 324 324 327 326
318 318 318 318 318 319 319 320 320 321 323 326 329 332 334 336 334 329 323 320 318 318 318 318 318 318 318 318 317 316 315 314 313 313 313 315 317 318 319 319 319 319 319 319 320 321 322 323 323
317 318 318 318 318 318 318 319 319 321 324 326 329 331 333 333 330 326 322 319 317 317 317 318 317 317 316 315 314 313 312 311 310 309 308 309 311 312 313 314 314 313 313 313 315 315 316 318 319
318 318 320 319 317 318 319 317 318 321 323 325 328 329 330 330 328 324 320 317 316 315 316 315 314 315 314 313 312 310 309 308 307 307 307 306 307 308 309 310 310 309 309 310 311 311 312 313 313
320 321 320 319 318 318 319 318 319 321 322 322 325 327 329 329 325 322 318 316 315 314 315 315 314 313 312 311 310 309 308 307 306 305 305 305 305 306 307 307 307 308 308 308 309 310 310 312 312
323 321 321 320 319 317 318 319 319 320 321 322 323 325 327 328 326 321 317 315 313 313 313 314 313 312 311 310 308 307 306 305 304 303 303 303 302 303 304 304 304 305 306 306 306 308 308 309 309
320 319 320 319 317 316 318 319 319 318 320 322 323 324 326 326 325 320 316 313 311 311 312 313 313 312 310 310 309 309 307 305 303 301 301 301 301 301 302 302 303 303 304 304 305 306 307 307 307
319 318 320 320 318 316 318 319 319 318 317 318 321 322 324 325 324 320 316 313 311 311 311 311 312 311 310 310 310 308 306 304 302 300 300 300 300 300 300 301 302 302 303 304 304 304 305 306 305
319 320 321 321 319 317 318 320 321 320 318 317 317 319 321 323 324 321 316 313 312 311 311 310 311 310 310 309 307 305 303 302 301 300 300 299 299 299 300 300 301 302 302 302 302 302 303 305 305
321 320 317 318 319 324 318 323 323 322 319 316 316 317 318 320 322 322 317 314 312 311 310 309 309 309 309 308 307 306 307 305 302 300 299 298 298 298 299 299 300 300 300 300 300 300 301 303 303
319 317 317 318 320 322 321 321 323 320 320 319 316 317 318 319 320 322 318 314 312 311 309 307 307 307 307 308 307 308 306 302 300 299 299 298 297 297 297 298 299 299 299 298 298 299 299 300 301
315 316 317 317 319 323 322 322 324 323 319 318 318 316 317 318 319 320 317 314 312 310 307 306 306 306 306 306 306 306 304 301 300 299 298 298 297 297 297 297 297 298 298 297 297 297 296 297 297
314 317 322 322 321 323 320 320 322 321 318 317 317 318 319 318 319 319 317 314 311 309 306 305 305 304 304 304 304 303 301 300 300 299 298 297 297 296 296 296 296 296 296 295 295 295 295 295 295
318 318 322 327 326 324 317 320 320 319 318 318 318 318 318 319 318 318 316 314 311 308 306 304 304 303 302 301 301 300 300 300 299 298 297 296 296 295 295 295 295 294 294 294 293 292 293 293 293
317 318 317 321 322 325 322 321 320 318 319 318 318 319 319 318 318 317 316 313 311 307 305 303 302 300 300 300 299 298 298 298 297 297 295 294 293 293 293 293 293 292 292 292 291 290 290 291 291
315 316 321 322 326 325 320 321 322 319 318 318 319 318 318 318 316 315 315 312 310 307 304 302 301 300 299 299 298 298 297 297 296 295 293 292 291 292 292 292 291 290 290 289 289 288 288 288 288
314 315 315 317 321 323 319 318 316 318 318 318 316 316 317 317 317 315 313 311 308 305 303 301 300 299 298 298 298 297 296 295 294 292 291 290 290 291 291 290 288 288 288 287 287 287 286 286 286
311 312 314 319 318 321 321 318 315 316 314 312 313 313 314 314 315 315 313 309 307 305 303 301 300 299 298 298 297 296 295 294 292 290 289 289 289 290 290 288 287 286 286 285 285 285 285 285 285

GFSSGP_925_thetae_153.txt.gz
Theta_e
323 326 324 326 329 328 327 328 329 330 334 337 335 337 340 355 349 361 350 349 348 350 348 342 332 329 329 330 330 333 336 341 342 341 339 339 338 336 336 338 339 340 340 337 336 335 334 334 333
322 324 324 328 327 327 328 329 328 331 336 338 340 344 345 356 354 352 350 348 347 347 348 347 336 331 330 331 331 331 331 335 340 341 339 339 340 338 337 339 339 341 340 337 335 337 334 335 335
322 323 327 328 327 327 327 329 328 336 342 340 343 344 350 359 352 351 349 347 346 347 348 346 339 334 332 332 332 331 330 330 337 340 341 341 340 339 338 338 338 339 338 337 338 339 337 336 336
323 326 325 325 325 327 327 328 328 338 342 341 340 348 353 348 351 349 347 346 347 347 347 342 340 337 335 333 333 333 332 330 330 332 335 336 336 336 336 337 339 339 337 338 341 343 338 337 337
323 326 326 327 326 326 328 327 328 336 339 339 340 352 354 344 347 347 346 345 346 346 345 342 340 339 337 337 335 334 334 333 332 331 332 333 334 336 337 339 339 338 337 338 341 340 337 336 336
325 325 326 325 326 326 326 327 330 334 334 336 339 347 351 341 345 347 344 345 344 344 343 342 341 340 340 340 339 337 336 337 337 336 335 334 334 335 336 337 337 337 339 340 339 338 338 337 337
323 326 327 326 325 325 326 328 330 334 335 338 339 343 347 343 343 343 343 343 342 342 344 343 341 338 339 339 339 339 339 339 339 340 340 340 341 338 337 336 336 336 336 337 337 340 341 340 339
323 324 325 325 325 324 326 327 328 335 335 336 339 341 345 345 342 341 341 341 340 341 343 345 343 343 341 337 337 336 337 337 338 339 340 341 341 344 343 342 340 339 338 338 337 337 338 339 338
321 321 323 324 324 324 326 326 327 334 334 339 341 339 345 342 339 339 340 339 338 338 339 341 343 343 341 340 339 339 339 339 339 338 338 339 342 343 342 342 342 341 341 341 341 339 339 339 338
320 322 323 323 324 323 324 325 326 330 335 334 337 336 344 340 339 340 340 339 337 336 336 337 338 341 341 339 340 340 339 339 338 338 339 338 338 339 338 339 339 339 339 338 339 339 339 339 342
319 320 321 322 322 322 323 323 325 327 330 332 336 339 341 340 340 341 340 339 338 334 331 331 331 332 332 332 335 335 336 335 335 335 336 334 335 336 333 335 333 335 338 338 339 339 341 340 341
320 319 319 319 320 321 322 323 323 325 327 328 331 336 339 340 342 342 340 339 336 331 328 327 326 327 327 326 326 328 328 329 329 330 332 333 331 331 331 328 328 329 331 332 333 335 335 338 338
319 319 319 319 320 320 320 321 322 323 325 327 328 337 339 340 340 340 339 336 331 329 326 324 324 325 325 325 324 324 324 324 324 325 325 329 329 329 326 326 325 326 326 326 328 330 331 332 333
321 320 320 320 320 320 319 320 320 322 323 326 327 330 336 338 339 339 338 332 329 326 324 324 323 324 323 323 323 322 321 320 320 320 320 322 324 325 327 327 326 325 324 325 326 326 327 328 329
321 321 321 321 320 319 319 319 319 320 322 324 327 330 334 336 337 338 335 331 327 325 324 323 323 322 322 321 320 319 318 317 316 316 315 316 318 319 320 321 321 319 318 319 320 320 320 322 323
321 322 323 321 321 320 319 319 320 320 321 323 325 329 331 333 335 335 332 329 326 323 323 322 320 321 320 319 318 316 316 315 314 313 313 312 313 314 315 316 315 315 315 315 315 316 316 317 317
325 324 323 323 321 320 320 320 321 321 321 323 324 326 329 332 334 333 330 328 324 323 322 321 319 320 318 317 316 315 314 313 312 311 311 310 310 311 312 312 312 312 312 313 313 314 314 315 315
327 326 325 323 322 322 321 321 321 321 322 323 323 324 326 329 330 331 329 326 323 322 321 320 319 318 317 315 314 313 312 311 310 309 309 309 308 308 309 309 309 309 310 310 310 311 311 312 311
326 326 325 324 323 322 321 322 322 322 322 321 322 322 323 326 328 329 327 324 322 320 320 320 319 317 316 314 313 313 312 310 309 307 306 306 306 306 307 306 307 307 308 308 308 309 309 310 309
324 325 326 324 324 324 323 323 323 323 323 321 321 322 323 324 326 328 327 323 321 319 319 319 318 317 315 314 314 313 312 310 308 306 305 305 305 305 306 306 306 307 308 308 308 308 309 310 309
325 325 326 326 325 324 324 325 325 325 324 324 322 321 322 323 324 326 327 323 320 318 318 318 318 317 315 314 314 312 310 307 306 305 304 304 304 305 305 306 306 306 307 307 306 307 308 309 308
326 324 324 324 324 326 325 330 326 325 324 323 322 322 320 321 322 323 327 323 320 318 317 317 317 316 315 314 312 310 309 308 306 305 304 303 303 303 304 304 305 305 305 305 304 305 306 307 307
325 322 322 323 324 325 326 327 325 324 324 323 322 320 320 320 320 321 323 324 320 318 317 316 315 315 314 313 311 310 310 309 305 304 303 303 303 303 303 304 304 304 303 303 303 303 304 304 305
320 319 321 322 323 327 325 325 325 325 322 321 320 320 320 321 319 320 320 323 320 318 317 315 314 314 314 312 312 311 311 307 304 304 304 303 302 302 302 302 302 302 302 302 302 301 301 302 302
318 320 325 326 326 326 322 324 324 323 321 320 320 320 321 321 321 320 320 324 321 318 316 315 313 312 312 312 312 312 310 306 305 304 304 303 302 302 301 301 301 300 300 299 299 299 299 299 299
322 321 324 328 326 325 325 324 323 322 321 320 320 320 321 321 321 321 321 321 320 318 316 314 312 311 311 311 311 310 308 305 305 304 303 302 302 301 300 299 299 298 298 297 296 296 296 297 296
320 321 320 323 325 327 323 323 323 322 321 320 319 319 319 320 320 320 319 319 318 317 315 312 311 310 309 309 309 307 305 304 304 303 302 300 299 299 298 298 297 296 296 295 294 294 294 294 294
317 318 323 323 326 324 320 320 320 321 321 320 318 316 315 317 317 318 318 317 317 316 314 311 309 309 307 306 305 304 304 303 302 301 299 298 297 297 297 296 295 294 293 293 293 292 291 292 291
316 317 318 319 323 324 322 320 319 318 317 317 315 313 313 315 315 316 317 316 316 314 312 309 307 306 304 303 303 302 302 301 301 299 297 296 295 296 295 294 293 292 292 291 291 290 290 290 290
313 315 317 321 320 321 323 323 318 316 315 314 312 311 313 314 315 316 317 316 315 313 312 308 306 305 303 302 302 301 300 299 298 296 295 294 293 294 293 291 290 290 290 290 289 289 289 289 289

GFSSGP_925_thetae_156.txt.gz
Theta_e
321 325 328 327 328 329 328 328 328 329 330 336 333 340 356 358 364 358 345 350 350 348 334 329 328 329 329 328 328 335 342 342 341 340 338 336 334 335 336 338 338 338 338 336 335 334 334 334 331
319 323 325 326 330 328 328 329 328 329 337 334 339 338 352 360 354 352 350 349 351 348 344 333 329 328 330 329 329 330 337 342 341 340 338 338 337 336 336 338 338 340 340 337 336 335 334 335 334
319 324 325 328 327 326 328 329 328 341 340 335 338 343 355 357 352 351 349 348 347 347 348 343 332 330 330 330 330 331 333 338 339 340 338 338 339 338 338 338 339 342 338 337 338 338 336 335 335
320 325 325 325 325 326 327 328 328 338 339 337 339 357 354 352 351 350 348 346 346 351 349 344 336 332 331 331 331 330 330 335 337 339 340 340 339 338 338 338 338 338 337 336 340 342 339 336 336
320 325 326 327 327 327 327 327 327 328 338 338 338 354 354 350 349 348 347 346 347 348 346 341 339 336 333 333 333 332 331 331 331 334 336 337 336 336 337 336 338 339 337 337 338 340 336 335 335
322 325 325 326 326 327 327 327 327 328 334 335 335 352 353 348 349 347 346 346 347 346 346 342 341 339 337 336 334 335 334 334 332 332 332 333 335 335 336 337 338 337 336 337 337 338 337 335 335
320 323 326 326 326 326 327 327 327 328 330 334 334 340 349 347 349 347 346 346 346 345 344 342 341 341 340 339 338 337 336 337 337 336 335 335 335 335 336 336 336 336 336 338 339 339 339 340 339
319 322 323 324 325 324 327 327 327 327 332 334 337 339 351 347 347 346 346 345 345 346 344 343 341 340 339 340 339 339 338 338 339 339 340 340 340 342 341 338 337 337 336 336 336 336 337 339 339
320 320 321 322 323 325 326 326 326 326 332 337 340 343 346 346 344 344 344 343 343 344 344 344 343 342 340 337 337 336 336 337 337 338 338 339 343 343 343 341 342 341 340 340 339 340 338 337 337
319 321 321 323 323 324 324 324 325 326 330 336 339 346 345 344 343 343 343 343 342 342 343 343 342 342 341 341 340 340 340 340 340 340 339 341 341 342 341 340 340 340 340 340 340 340 339 339 339
320 320 320 321 321 321 321 322 323 324 326 331 335 344 345 343 342 343 342 341 341 340 341 341 342 342 342 341 342 340 339 337 335 336 337 336 336 337 337 337 337 337 338 339 338 338 338 341 340
320 320 320 320 319 319 320 321 322 322 324 327 329 337 343 342 343 342 341 340 340 338 336 336 336 335 333 334 334 332 333 333 333 332 332 332 331 335 334 334 334 333 333 335 335 336 338 338 339
320 320 319 320 319 319 320 320 320 321 323 324 327 335 342 342 342 342 341 340 339 334 331 330 330 330 328 327 327 327 327 328 328 327 329 331 329 329 330 331 331 330 330 330 331 331 331 332 334
322 322 321 321 321 320 320 319 320 320 321 322 324 335 340 340 340 341 341 340 336 332 328 327 327 327 326 326 325 325 323 323 323 323 323 326 327 327 328 328 327 326 325 325 326 327 328 329 329
323 322 322 321 320 320 320 320 319 320 320 321 322 325 333 338 338 340 340 338 333 330 327 326 326 325 325 325 323 322 321 320 319 318 319 320 321 323 324 324 323 321 319 320 320 320 320 321 323
324 323 324 322 322 321 321 321 320 321 320 320 322 325 327 332 336 338 339 335 332 328 326 325 325 324 323 322 320 319 318 318 316 316 315 315 316 317 318 318 317 316 316 316 316 316 316 317 317
324 325 325 324 324 323 321 321 321 321 321 321 321 324 325 330 334 335 337 335 331 327 326 325 323 323 322 320 318 317 316 315 314 314 313 312 313 314 314 314 314 313 314 313 313 314 314 314 314
326 326 327 327 325 324 323 323 322 322 321 322 323 324 325 327 329 333 335 333 330 326 325 324 322 322 320 318 317 315 314 313 313 312 311 310 310 311 311 311 310 311 311 311 311 312 311 312 311
325 326 327 326 326 326 325 324 323 323 322 323 323 323 323 324 327 331 333 331 329 326 324 323 321 321 319 317 316 315 314 312 311 310 309 309 308 309 308 308 308 309 309 309 309 310 310 310 309
326 327 326 325 325 326 325 325 325 324 324 324 324 323 323 323 323 328 333 329 327 325 323 322 321 320 318 317 315 314 313 311 310 308 307 307 307 307 307 307 308 308 309 308 309 309 310 310 309
325 325 326 326 325 325 326 326 325 325 325 325 324 324 323 323 323 325 332 328 325 323 322 322 321 320 318 316 315 315 313 310 307 306 306 305 306 306 307 307 307 308 308 307 307 308 309 310 309
326 326 327 325 326 328 325 328 326 326 326 325 326 325 325 323 323 323 330 328 325 323 321 320 320 319 318 316 315 314 311 309 307 306 305 305 305 305 306 306 306 306 306 306 305 306 306 308 307
326 325 326 324 324 326 325 326 326 326 325 322 322 322 322 322 323 322 322 327 325 322 321 319 319 319 318 316 315 313 311 309 307 306 304 304 304 304 305 305 305 305 304 304 304 304 304 304 305
320 321 322 322 323 329 325 325 326 324 322 322 321 322 323 323 322 322 321 325 324 321 320 319 318 318 318 316 314 312 311 310 307 305 305 304 304 304 304 304 304 303 303 302 302 301 302 302 302
318 320 324 327 329 329 324 325 325 324 322 321 322 322 322 322 322 321 321 325 323 321 320 319 318 317 316 315 314 313 312 308 306 305 305 304 304 303 303 302 302 301 300 300 300 299 299 299 299
321 321 325 327 330 327 325 327 324 324 322 322 320 320 320 321 322 321 320 320 323 321 320 318 317 316 315 315 314 313 313 308 306 306 305 304 303 303 302 301 300 299 298 297 297 297 297 297 296
324 322 322 327 326 329 325 323 321 323 323 321 320 317 316 316 317 320 319 319 319 321 319 318 316 314 314 313 313 313 313 309 306 306 305 304 303 301 300 299 298 297 297 295 295 295 295 295 295
320 319 325 326 328 326 321 321 322 321 320 319 319 316 314 315 316 315 315 318 317 318 318 317 315 313 312 312 311 311 310 307 306 304 303 302 300 300 299 297 296 295 295 294 293 293 293 292 292
317 318 320 321 325 325 323 321 320 319 317 318 317 314 312 315 315 315 315 316 317 317 316 315 313 312 310 310 309 308 306 305 304 302 301 299 298 298 297 295 294 293 292 292 292 291 291 291 291
317 319 319 325 322 324 323 322 319 318 315 313 312 311 311 315 315 314 313 314 315 316 315 313 311 310 308 306 305 304 304 303 302 300 298 297 297 296 294 293 292 292 291 291 290 290 290 290 290